Time,TemperatureF,DewpointF,PressureIn,WindDirection,WindDirectionDegrees,WindSpeedMPH,WindSpeedGustMPH,Humidity,HourlyPrecipIn,Conditions,Clouds,dailyrainin,SoftwareType,DateUTC
2013-04-19 00:00:00,40.4,34.1,29.66,West,270,4.0,17.0,78,0.00,,OVC035,0.00,VWS V14.01,2013-04-19 05:00:00,
2013-04-19 00:02:00,40.4,33.8,29.66,West,277,4.0,13.0,77,0.00,,BKN032,0.00,VWS V14.01,2013-04-19 05:02:00,
2013-04-19 00:03:00,40.2,33.6,29.66,WNW,289,6.0,13.0,77,0.00,,BKN032,0.00,VWS V14.01,2013-04-19 05:03:00,
2013-04-19 00:04:00,40.2,33.6,29.66,NW,306,3.0,13.0,77,0.00,,BKN032,0.00,VWS V14.01,2013-04-19 05:04:00,
2013-04-19 00:07:00,40.2,32.9,29.66,West,267,5.0,18.0,75,0.00,,BKN032,0.00,VWS V14.01,2013-04-19 05:07:00,
2013-04-19 00:08:00,40.2,32.6,29.66,WNW,286,7.0,18.0,74,0.00,,BKN032,0.00,VWS V14.01,2013-04-19 05:08:00,
2013-04-19 00:09:00,40.2,32.2,29.66,West,259,11.0,18.0,73,0.00,,BKN032,0.00,VWS V14.01,2013-04-19 05:09:00,
2013-04-19 00:12:00,40.2,31.9,29.66,WSW,245,2.0,18.0,72,0.00,,BKN032,0.00,VWS V14.01,2013-04-19 05:12:00,
2013-04-19 00:13:00,40.2,31.9,29.66,WNW,290,4.0,18.0,72,0.00,,BKN032,0.00,VWS V14.01,2013-04-19 05:13:00,
2013-04-19 00:14:00,40.2,31.9,29.66,West,269,3.0,18.0,72,0.00,,BKN032,0.00,VWS V14.01,2013-04-19 05:14:00,
2013-04-19 00:17:00,40.2,32.2,29.66,SSW,213,4.0,18.0,73,0.00,,BKN032,0.00,VWS V14.01,2013-04-19 05:17:00,
2013-04-19 00:18:00,40.2,32.2,29.66,WNW,287,2.0,18.0,73,0.00,,BKN032,0.00,VWS V14.01,2013-04-19 05:18:00,
2013-04-19 00:19:00,40.2,32.2,29.66,WNW,298,7.0,18.0,73,0.00,,BKN032,0.00,VWS V14.01,2013-04-19 05:19:00,
2013-04-19 00:23:00,40.2,32.2,29.66,WNW,290,1.0,18.0,73,0.00,,BKN032,0.00,VWS V14.01,2013-04-19 05:23:00,
2013-04-19 00:25:00,40.2,32.6,29.66,West,267,5.0,18.0,74,0.00,,BKN032,0.00,VWS V14.01,2013-04-19 05:25:00,
2013-04-19 00:28:00,40.2,32.2,29.66,WSW,257,0.0,18.0,73,0.00,,BKN032,0.00,VWS V14.01,2013-04-19 05:28:00,
2013-04-19 00:29:00,40.2,32.2,29.66,West,267,2.0,18.0,73,0.00,,BKN032,0.00,VWS V14.01,2013-04-19 05:29:00,
2013-04-19 00:30:00,40.2,32.2,29.67,WNW,288,9.0,18.0,73,0.00,,BKN032,0.00,VWS V14.01,2013-04-19 05:30:00,
2013-04-19 00:33:00,40.2,31.9,29.67,West,280,4.0,14.0,72,0.00,,BKN032,0.00,VWS V14.01,2013-04-19 05:33:00,
2013-04-19 00:34:00,40.2,31.9,29.67,NW,312,8.0,14.0,72,0.00,,BKN032,0.00,VWS V14.01,2013-04-19 05:34:00,
2013-04-19 00:35:00,40.2,31.9,29.67,NW,317,10.0,14.0,72,0.00,,BKN032,0.00,VWS V14.01,2013-04-19 05:35:00,
2013-04-19 00:38:00,40.2,31.9,29.67,WNW,287,9.0,16.0,72,0.00,,BKN032,0.00,VWS V14.01,2013-04-19 05:38:00,
2013-04-19 00:39:00,40.2,31.9,29.67,WNW,286,4.0,16.0,72,0.00,,BKN032,0.00,VWS V14.01,2013-04-19 05:39:00,
2013-04-19 00:40:00,40.2,31.9,29.67,WNW,294,3.0,16.0,72,0.00,,BKN032,0.00,VWS V14.01,2013-04-19 05:40:00,
2013-04-19 00:43:00,40.2,31.9,29.67,NNW,329,14.0,18.0,72,0.00,,BKN032,0.00,VWS V14.01,2013-04-19 05:43:00,
2013-04-19 00:44:00,40.2,31.6,29.67,WNW,286,6.0,19.0,71,0.00,,BKN032,0.00,VWS V14.01,2013-04-19 05:44:00,
2013-04-19 00:45:00,40.2,31.6,29.67,WNW,285,7.0,19.0,71,0.00,,BKN032,0.00,VWS V14.01,2013-04-19 05:45:00,
2013-04-19 00:48:00,40.2,31.6,29.67,West,269,5.0,19.0,71,0.00,,BKN110,0.00,VWS V14.01,2013-04-19 05:48:00,
2013-04-19 00:49:00,40.2,31.6,29.67,NW,317,10.0,19.0,71,0.00,,BKN110,0.00,VWS V14.01,2013-04-19 05:49:00,
2013-04-19 00:50:00,40.2,31.6,29.67,WNW,295,2.0,19.0,71,0.00,,BKN110,0.00,VWS V14.01,2013-04-19 05:50:00,
2013-04-19 00:54:00,40.1,31.5,29.67,WNW,286,6.0,19.0,71,0.00,,BKN110,0.00,VWS V14.01,2013-04-19 05:54:00,
2013-04-19 00:55:00,40.1,31.8,29.67,West,274,5.0,19.0,72,0.00,,BKN110,0.00,VWS V14.01,2013-04-19 05:55:00,
2013-04-19 00:59:00,40.1,31.8,29.67,WNW,290,5.0,19.0,72,0.00,,BKN110,0.00,VWS V14.01,2013-04-19 05:59:00,
2013-04-19 01:00:00,40.1,31.8,29.66,West,275,3.0,19.0,72,0.00,,OVC026,0.00,VWS V14.01,2013-04-19 06:00:00,
2013-04-19 01:01:00,40.1,31.8,29.66,NW,309,12.0,18.0,72,0.00,,OVC026,0.00,VWS V14.01,2013-04-19 06:01:00,
2013-04-19 01:04:00,40.1,31.5,29.66,North,360,0.0,18.0,71,0.00,,OVC026,0.00,VWS V14.01,2013-04-19 06:04:00,
2013-04-19 01:06:00,40.1,31.5,29.66,WNW,284,6.0,18.0,71,0.00,,OVC026,0.00,VWS V14.01,2013-04-19 06:06:00,
2013-04-19 01:09:00,40.1,31.5,29.66,West,259,3.0,18.0,71,0.00,,OVC026,0.00,VWS V14.01,2013-04-19 06:09:00,
2013-04-19 01:11:00,40.1,31.5,29.66,WSW,242,10.0,18.0,71,0.00,,OVC026,0.00,VWS V14.01,2013-04-19 06:11:00,
2013-04-19 01:12:00,40.1,31.5,29.66,WSW,247,6.0,18.0,71,0.00,,OVC026,0.00,VWS V14.01,2013-04-19 06:12:00,
2013-04-19 01:14:00,40.0,31.0,29.66,NW,309,12.0,18.0,70,0.00,,OVC026,0.00,VWS V14.01,2013-04-19 06:14:00,
2013-04-19 01:15:00,40.0,31.0,29.67,West,267,4.0,18.0,70,0.00,,OVC026,0.00,VWS V14.01,2013-04-19 06:15:00,
2013-04-19 01:16:00,40.0,31.0,29.67,West,276,3.0,18.0,70,0.00,,OVC026,0.00,VWS V14.01,2013-04-19 06:16:00,
2013-04-19 01:17:00,40.0,31.0,29.67,WNW,284,0.0,18.0,70,0.00,,OVC026,0.00,VWS V14.01,2013-04-19 06:17:00,
2013-04-19 01:19:00,39.8,30.5,29.67,WSW,252,4.0,18.0,69,0.00,,OVC026,0.00,VWS V14.01,2013-04-19 06:19:00,
2013-04-19 01:20:00,39.8,30.5,29.67,West,279,10.0,18.0,69,0.00,,OVC026,0.00,VWS V14.01,2013-04-19 06:20:00,
2013-04-19 01:21:00,39.8,30.5,29.67,WNW,288,4.0,18.0,69,0.00,,OVC026,0.00,VWS V14.01,2013-04-19 06:21:00,
2013-04-19 01:22:00,39.7,30.4,29.67,West,267,3.0,18.0,69,0.00,,OVC026,0.00,VWS V14.01,2013-04-19 06:22:00,
2013-04-19 01:24:00,39.7,30.4,29.67,West,269,9.0,18.0,69,0.00,,OVC026,0.00,VWS V14.01,2013-04-19 06:24:00,
2013-04-19 01:25:00,39.7,30.4,29.67,WNW,286,5.0,18.0,69,0.00,,OVC026,0.00,VWS V14.01,2013-04-19 06:25:00,
2013-04-19 01:27:00,39.7,30.4,29.67,West,263,4.0,18.0,69,0.00,,OVC026,0.00,VWS V14.01,2013-04-19 06:27:00,
2013-04-19 01:29:00,39.5,30.2,29.67,WNW,288,11.0,19.0,69,0.00,,OVC026,0.00,VWS V14.01,2013-04-19 06:29:00,
2013-04-19 01:30:00,39.5,30.2,29.67,West,266,5.0,19.0,69,0.00,,OVC026,0.00,VWS V14.01,2013-04-19 06:30:00,
2013-04-19 01:32:00,39.4,30.1,29.67,West,260,4.0,16.0,69,0.00,,OVC026,0.00,VWS V14.01,2013-04-19 06:32:00,
2013-04-19 01:34:00,39.4,30.1,29.67,West,259,2.0,16.0,69,0.00,,OVC026,0.00,VWS V14.01,2013-04-19 06:34:00,
2013-04-19 01:35:00,39.4,30.1,29.67,West,281,6.0,16.0,69,0.00,,OVC026,0.00,VWS V14.01,2013-04-19 06:35:00,
2013-04-19 01:37:00,39.2,29.5,29.67,WNW,292,7.0,18.0,68,0.00,,OVC026,0.00,VWS V14.01,2013-04-19 06:37:00,
2013-04-19 01:40:00,39.2,29.5,29.67,West,280,7.0,18.0,68,0.00,,OVC026,0.00,VWS V14.01,2013-04-19 06:40:00,
2013-04-19 01:42:00,39.2,29.9,29.67,West,264,4.0,18.0,69,0.00,,OVC026,0.00,VWS V14.01,2013-04-19 06:42:00,
2013-04-19 01:45:00,39.2,29.9,29.67,WNW,294,14.0,18.0,69,0.00,,OVC026,0.00,VWS V14.01,2013-04-19 06:45:00,
2013-04-19 01:47:00,39.1,29.8,29.67,West,270,1.0,18.0,69,0.00,,OVC027,0.00,VWS V14.01,2013-04-19 06:47:00,
2013-04-19 01:50:00,39.2,29.9,29.67,WNW,301,5.0,18.0,69,0.00,,OVC027,0.00,VWS V14.01,2013-04-19 06:50:00,
2013-04-19 01:52:00,39.2,29.9,29.67,West,269,5.0,18.0,69,0.00,,OVC027,0.00,VWS V14.01,2013-04-19 06:52:00,
2013-04-19 01:55:00,39.2,29.9,29.67,WNW,288,2.0,18.0,69,0.00,,OVC027,0.00,VWS V14.01,2013-04-19 06:55:00,
2013-04-19 01:57:00,39.2,29.9,29.67,West,277,7.0,18.0,69,0.00,,OVC027,0.00,VWS V14.01,2013-04-19 06:57:00,
2013-04-19 02:00:00,39.1,29.8,29.67,West,270,11.0,18.0,69,0.00,,OVC027,0.00,VWS V14.01,2013-04-19 07:00:00,
2013-04-19 02:03:00,39.1,29.5,29.67,West,269,5.0,16.0,68,0.00,,OVC027,0.00,VWS V14.01,2013-04-19 07:03:00,
2013-04-19 02:05:00,39.1,29.1,29.67,West,273,11.0,19.0,67,0.00,,OVC027,0.00,VWS V14.01,2013-04-19 07:05:00,
2013-04-19 02:06:00,39.1,29.1,29.67,WNW,288,5.0,19.0,67,0.00,,OVC027,0.00,VWS V14.01,2013-04-19 07:06:00,
2013-04-19 02:08:00,39.1,28.3,29.67,West,275,1.0,19.0,65,0.00,,OVC027,0.00,VWS V14.01,2013-04-19 07:08:00,
2013-04-19 02:10:00,39.0,28.2,29.67,SW,234,0.0,19.0,65,0.00,,OVC027,0.00,VWS V14.01,2013-04-19 07:10:00,
2013-04-19 02:11:00,39.0,28.2,29.67,SW,227,3.0,19.0,65,0.00,,OVC027,0.00,VWS V14.01,2013-04-19 07:11:00,
2013-04-19 02:13:00,39.0,28.2,29.67,West,265,5.0,19.0,65,0.00,,OVC027,0.00,VWS V14.01,2013-04-19 07:13:00,
2013-04-19 02:14:00,39.0,28.2,29.67,NW,305,12.0,19.0,65,0.00,,OVC027,0.00,VWS V14.01,2013-04-19 07:14:00,
2013-04-19 02:15:00,39.0,28.2,29.67,West,275,5.0,19.0,65,0.00,,OVC027,0.00,VWS V14.01,2013-04-19 07:15:00,
2013-04-19 02:16:00,38.8,28.1,29.67,West,277,0.0,19.0,65,0.00,,OVC027,0.00,VWS V14.01,2013-04-19 07:16:00,
2013-04-19 02:18:00,38.8,28.4,29.67,WNW,292,11.0,19.0,66,0.00,,OVC027,0.00,VWS V14.01,2013-04-19 07:18:00,
2013-04-19 02:20:00,38.8,27.3,29.67,West,266,4.0,19.0,63,0.00,,OVC027,0.00,VWS V14.01,2013-04-19 07:20:00,
2013-04-19 02:21:00,38.8,28.4,29.67,West,263,1.0,19.0,66,0.00,,OVC027,0.00,VWS V14.01,2013-04-19 07:21:00,
2013-04-19 02:23:00,38.8,28.1,29.67,WNW,294,11.0,19.0,65,0.00,,OVC027,0.00,VWS V14.01,2013-04-19 07:23:00,
2013-04-19 02:25:00,38.8,28.4,29.67,WNW,291,5.0,19.0,66,0.00,,OVC027,0.00,VWS V14.01,2013-04-19 07:25:00,
2013-04-19 02:26:00,38.8,28.1,29.67,WNW,282,3.0,19.0,65,0.00,,OVC027,0.00,VWS V14.01,2013-04-19 07:26:00,
2013-04-19 02:28:00,38.8,28.4,29.67,WSW,254,2.0,19.0,66,0.00,,OVC027,0.00,VWS V14.01,2013-04-19 07:28:00,
2013-04-19 02:30:00,38.8,28.4,29.67,West,264,3.0,19.0,66,0.00,,OVC027,0.00,VWS V14.01,2013-04-19 07:30:00,
2013-04-19 02:31:00,38.8,28.4,29.67,NW,306,4.0,9.0,66,0.00,,OVC027,0.00,VWS V14.01,2013-04-19 07:31:00,
2013-04-19 02:32:00,38.8,28.8,29.67,NW,316,10.0,10.0,67,0.00,,OVC027,0.00,VWS V14.01,2013-04-19 07:32:00,
2013-04-19 02:33:00,38.8,28.4,29.67,WNW,287,7.0,18.0,66,0.00,,OVC027,0.00,VWS V14.01,2013-04-19 07:33:00,
2013-04-19 02:35:00,38.8,28.4,29.67,West,272,6.0,18.0,66,0.00,,OVC027,0.00,VWS V14.01,2013-04-19 07:35:00,
2013-04-19 02:36:00,38.7,28.0,29.67,WNW,291,7.0,18.0,65,0.00,,OVC027,0.00,VWS V14.01,2013-04-19 07:36:00,
2013-04-19 02:37:00,38.7,28.0,29.67,West,266,5.0,18.0,65,0.00,,OVC027,0.00,VWS V14.01,2013-04-19 07:37:00,
2013-04-19 02:39:00,38.7,28.0,29.67,West,276,13.0,19.0,65,0.00,,OVC027,0.00,VWS V14.01,2013-04-19 07:39:00,
2013-04-19 02:40:00,38.7,28.0,29.67,NW,305,7.0,19.0,65,0.00,,OVC027,0.00,VWS V14.01,2013-04-19 07:40:00,
2013-04-19 02:41:00,38.7,28.0,29.67,West,275,4.0,19.0,65,0.00,,OVC027,0.00,VWS V14.01,2013-04-19 07:41:00,
2013-04-19 02:42:00,38.7,28.0,29.67,NW,317,3.0,19.0,65,0.00,,OVC027,0.00,VWS V14.01,2013-04-19 07:42:00,
2013-04-19 02:44:00,38.7,28.0,29.67,NW,320,12.0,19.0,65,0.00,,OVC027,0.00,VWS V14.01,2013-04-19 07:44:00,
2013-04-19 02:45:00,38.7,28.0,29.67,WNW,289,10.0,19.0,65,0.00,,OVC027,0.00,VWS V14.01,2013-04-19 07:45:00,
2013-04-19 02:46:00,38.7,28.0,29.67,West,279,8.0,19.0,65,0.00,,OVC033,0.00,VWS V14.01,2013-04-19 07:46:00,
2013-04-19 02:47:00,38.7,28.0,29.67,NW,311,6.0,19.0,65,0.00,,OVC033,0.00,VWS V14.01,2013-04-19 07:47:00,
2013-04-19 02:48:00,38.5,27.8,29.67,WNW,289,10.0,19.0,65,0.00,,OVC033,0.00,VWS V14.01,2013-04-19 07:48:00,
2013-04-19 02:49:00,38.5,27.8,29.67,WNW,296,5.0,19.0,65,0.00,,OVC033,0.00,VWS V14.01,2013-04-19 07:49:00,
2013-04-19 02:50:00,38.5,27.8,29.67,West,264,6.0,19.0,65,0.00,,OVC033,0.00,VWS V14.01,2013-04-19 07:50:00,
2013-04-19 02:52:00,38.5,27.8,29.67,West,267,6.0,19.0,65,0.00,,OVC033,0.00,VWS V14.01,2013-04-19 07:52:00,
2013-04-19 02:53:00,38.5,27.8,29.67,West,272,2.0,19.0,65,0.00,,OVC033,0.00,VWS V14.01,2013-04-19 07:53:00,
2013-04-19 02:54:00,38.5,28.1,29.67,West,277,2.0,19.0,66,0.00,,OVC033,0.00,VWS V14.01,2013-04-19 07:54:00,
2013-04-19 02:55:00,38.5,28.1,29.67,WNW,286,12.0,19.0,66,0.00,,OVC033,0.00,VWS V14.01,2013-04-19 07:55:00,
2013-04-19 02:57:00,38.5,28.1,29.67,WNW,292,4.0,19.0,66,0.00,,OVC033,0.00,VWS V14.01,2013-04-19 07:57:00,
2013-04-19 02:58:00,38.5,28.1,29.67,NW,305,5.0,19.0,66,0.00,,OVC033,0.00,VWS V14.01,2013-04-19 07:58:00,
2013-04-19 02:59:00,38.5,28.5,29.67,WSW,246,4.0,19.0,67,0.00,,OVC033,0.00,VWS V14.01,2013-04-19 07:59:00,
2013-04-19 03:00:00,38.5,28.5,29.67,West,271,10.0,19.0,67,0.00,,OVC033,0.00,VWS V14.01,2013-04-19 08:00:00,
2013-04-19 03:02:00,38.5,28.5,29.67,NNW,337,3.0,11.0,67,0.00,,OVC031,0.00,VWS V14.01,2013-04-19 08:02:00,
2013-04-19 03:03:00,38.5,28.5,29.67,WNW,288,7.0,13.0,67,0.00,,OVC031,0.00,VWS V14.01,2013-04-19 08:03:00,
2013-04-19 03:04:00,38.5,28.5,29.67,West,259,4.0,13.0,67,0.00,,OVC031,0.00,VWS V14.01,2013-04-19 08:04:00,
2013-04-19 03:05:00,38.5,28.5,29.67,NW,304,3.0,13.0,67,0.00,,OVC031,0.00,VWS V14.01,2013-04-19 08:05:00,
2013-04-19 03:07:00,38.5,28.5,29.67,West,268,4.0,13.0,67,0.00,,OVC031,0.00,VWS V14.01,2013-04-19 08:07:00,
2013-04-19 03:08:00,38.5,28.5,29.67,West,260,3.0,13.0,67,0.00,,OVC031,0.00,VWS V14.01,2013-04-19 08:08:00,
2013-04-19 03:09:00,38.5,28.5,29.67,NW,305,0.0,13.0,67,0.00,,OVC031,0.00,VWS V14.01,2013-04-19 08:09:00,
2013-04-19 03:10:00,38.5,28.5,29.67,West,272,5.0,13.0,67,0.00,,OVC031,0.00,VWS V14.01,2013-04-19 08:10:00,
2013-04-19 03:12:00,38.5,28.5,29.67,WNW,292,6.0,13.0,67,0.00,,OVC031,0.00,VWS V14.01,2013-04-19 08:12:00,
2013-04-19 03:13:00,38.5,28.5,29.67,WNW,284,4.0,13.0,67,0.00,,OVC031,0.00,VWS V14.01,2013-04-19 08:13:00,
2013-04-19 03:14:00,38.5,28.5,29.67,WNW,296,14.0,14.0,67,0.00,,OVC031,0.00,VWS V14.01,2013-04-19 08:14:00,
2013-04-19 03:15:00,38.5,28.5,29.67,WSW,239,11.0,14.0,67,0.00,,OVC031,0.00,VWS V14.01,2013-04-19 08:15:00,
2013-04-19 03:17:00,38.5,28.5,29.67,West,269,3.0,14.0,67,0.00,,OVC031,0.00,VWS V14.01,2013-04-19 08:17:00,
2013-04-19 03:18:00,38.5,28.5,29.67,WSW,255,1.0,14.0,67,0.00,,OVC031,0.00,VWS V14.01,2013-04-19 08:18:00,
2013-04-19 03:19:00,38.5,28.5,29.67,West,263,1.0,14.0,67,0.00,,OVC031,0.00,VWS V14.01,2013-04-19 08:19:00,
2013-04-19 03:20:00,38.5,28.5,29.67,WSW,252,2.0,14.0,67,0.00,,OVC031,0.00,VWS V14.01,2013-04-19 08:20:00,
2013-04-19 03:22:00,38.5,28.1,29.67,WSW,242,3.0,14.0,66,0.00,,OVC031,0.00,VWS V14.01,2013-04-19 08:22:00,
2013-04-19 03:23:00,38.5,28.1,29.67,West,281,7.0,14.0,66,0.00,,OVC031,0.00,VWS V14.01,2013-04-19 08:23:00,
2013-04-19 03:24:00,38.5,28.1,29.67,WNW,292,10.0,14.0,66,0.00,,OVC031,0.00,VWS V14.01,2013-04-19 08:24:00,
2013-04-19 03:25:00,38.5,28.1,29.67,NNW,336,6.0,14.0,66,0.00,,OVC031,0.00,VWS V14.01,2013-04-19 08:25:00,
2013-04-19 03:27:00,38.5,28.1,29.67,WSW,244,3.0,14.0,66,0.00,,OVC031,0.00,VWS V14.01,2013-04-19 08:27:00,
2013-04-19 03:28:00,38.5,28.1,29.67,NNW,333,2.0,14.0,66,0.00,,OVC031,0.00,VWS V14.01,2013-04-19 08:28:00,
2013-04-19 03:29:00,38.5,28.1,29.67,West,261,7.0,14.0,66,0.00,,OVC031,0.00,VWS V14.01,2013-04-19 08:29:00,
2013-04-19 03:30:00,38.5,28.1,29.67,West,259,4.0,14.0,66,0.00,,OVC031,0.00,VWS V14.01,2013-04-19 08:30:00,
2013-04-19 03:32:00,38.5,28.1,29.67,WNW,293,3.0,9.0,66,0.00,,OVC031,0.00,VWS V14.01,2013-04-19 08:32:00,
2013-04-19 03:33:00,38.5,28.1,29.67,WNW,293,5.0,9.0,66,0.00,,OVC031,0.00,VWS V14.01,2013-04-19 08:33:00,
2013-04-19 03:34:00,38.5,28.1,29.67,WNW,301,4.0,9.0,66,0.00,,OVC031,0.00,VWS V14.01,2013-04-19 08:34:00,
2013-04-19 03:35:00,38.5,28.5,29.67,West,273,2.0,9.0,67,0.00,,OVC031,0.00,VWS V14.01,2013-04-19 08:35:00,
2013-04-19 03:36:00,38.5,28.5,29.67,West,269,3.0,9.0,67,0.00,,OVC031,0.00,VWS V14.01,2013-04-19 08:36:00,
2013-04-19 03:37:00,38.5,28.1,29.67,West,271,3.0,9.0,66,0.00,,OVC031,0.00,VWS V14.01,2013-04-19 08:37:00,
2013-04-19 03:38:00,38.5,28.1,29.67,West,267,3.0,11.0,66,0.00,,OVC031,0.00,VWS V14.01,2013-04-19 08:38:00,
2013-04-19 03:39:00,38.5,28.1,29.67,West,271,4.0,11.0,66,0.00,,OVC031,0.00,VWS V14.01,2013-04-19 08:39:00,
2013-04-19 03:40:00,38.5,28.1,29.67,West,265,3.0,11.0,66,0.00,,OVC031,0.00,VWS V14.01,2013-04-19 08:40:00,
2013-04-19 03:41:00,38.5,28.1,29.67,West,277,7.0,11.0,66,0.00,,OVC031,0.00,VWS V14.01,2013-04-19 08:41:00,
2013-04-19 03:43:00,38.5,28.1,29.67,West,265,4.0,11.0,66,0.00,,OVC031,0.00,VWS V14.01,2013-04-19 08:43:00,
2013-04-19 03:44:00,38.5,28.5,29.67,WNW,286,0.0,11.0,67,0.00,,OVC031,0.00,VWS V14.01,2013-04-19 08:44:00,
2013-04-19 03:45:00,38.5,28.5,29.68,West,267,0.0,11.0,67,0.00,,OVC031,0.00,VWS V14.01,2013-04-19 08:45:00,
2013-04-19 03:46:00,38.5,28.5,29.68,West,265,0.0,11.0,67,0.00,,OVC031,0.00,VWS V14.01,2013-04-19 08:46:00,
2013-04-19 03:48:00,38.5,28.5,29.68,WNW,285,4.0,11.0,67,0.00,,OVC031,0.00,VWS V14.01,2013-04-19 08:48:00,
2013-04-19 03:49:00,38.5,28.9,29.68,West,270,1.0,11.0,68,0.00,,OVC031,0.00,VWS V14.01,2013-04-19 08:49:00,
2013-04-19 03:51:00,38.5,28.9,29.68,West,277,9.0,11.0,68,0.00,,OVC031,0.00,VWS V14.01,2013-04-19 08:51:00,
2013-04-19 03:53:00,38.4,28.8,29.68,West,277,0.0,11.0,68,0.00,,OVC031,0.00,VWS V14.01,2013-04-19 08:53:00,
2013-04-19 03:54:00,38.4,28.8,29.68,West,281,1.0,11.0,68,0.00,,OVC031,0.00,VWS V14.01,2013-04-19 08:54:00,
2013-04-19 03:56:00,38.4,28.8,29.68,West,277,2.0,11.0,68,0.00,,OVC031,0.00,VWS V14.01,2013-04-19 08:56:00,
2013-04-19 03:57:00,38.4,28.8,29.68,NNW,339,1.0,17.0,68,0.00,,OVC031,0.00,VWS V14.01,2013-04-19 08:57:00,
2013-04-19 03:58:00,38.4,28.4,29.68,West,281,0.0,17.0,67,0.00,,OVC031,0.00,VWS V14.01,2013-04-19 08:58:00,
2013-04-19 03:59:00,38.4,28.0,29.68,WNW,296,4.0,17.0,66,0.00,,OVC031,0.00,VWS V14.01,2013-04-19 08:59:00,
2013-04-19 04:00:00,38.4,28.0,29.68,West,267,1.0,17.0,66,0.00,,OVC035,0.00,VWS V14.01,2013-04-19 09:00:00,
2013-04-19 04:01:00,38.4,28.0,29.68,NNW,332,5.0,5.0,66,0.00,,OVC031,0.00,VWS V14.01,2013-04-19 09:01:00,
2013-04-19 04:02:00,38.4,28.0,29.68,West,272,3.0,10.0,66,0.00,,OVC031,0.00,VWS V14.01,2013-04-19 09:02:00,
2013-04-19 04:03:00,38.4,28.0,29.68,West,278,3.0,10.0,66,0.00,,OVC031,0.00,VWS V14.01,2013-04-19 09:03:00,
2013-04-19 04:05:00,38.4,28.0,29.68,WNW,300,11.0,11.0,66,0.00,,OVC031,0.00,VWS V14.01,2013-04-19 09:05:00,
2013-04-19 04:06:00,38.4,27.7,29.68,West,261,2.0,11.0,65,0.00,,OVC031,0.00,VWS V14.01,2013-04-19 09:06:00,
2013-04-19 04:07:00,38.4,27.7,29.68,WNW,287,6.0,11.0,65,0.00,,OVC031,0.00,VWS V14.01,2013-04-19 09:07:00,
2013-04-19 04:08:00,38.4,27.7,29.68,WNW,302,7.0,11.0,65,0.00,,OVC031,0.00,VWS V14.01,2013-04-19 09:08:00,
2013-04-19 04:10:00,38.4,27.7,29.68,WSW,249,9.0,12.0,65,0.00,,OVC031,0.00,VWS V14.01,2013-04-19 09:10:00,
2013-04-19 04:11:00,38.4,27.3,29.68,West,265,5.0,12.0,64,0.00,,OVC031,0.00,VWS V14.01,2013-04-19 09:11:00,
2013-04-19 04:12:00,38.4,27.3,29.68,WSW,256,6.0,12.0,64,0.00,,OVC031,0.00,VWS V14.01,2013-04-19 09:12:00,
2013-04-19 04:13:00,38.4,27.7,29.68,WNW,290,6.0,12.0,65,0.00,,OVC031,0.00,VWS V14.01,2013-04-19 09:13:00,
2013-04-19 04:14:00,38.4,27.7,29.68,NW,313,3.0,12.0,65,0.00,,OVC031,0.00,VWS V14.01,2013-04-19 09:14:00,
2013-04-19 04:15:00,38.4,27.7,29.68,WNW,303,0.0,12.0,65,0.00,,OVC031,0.00,VWS V14.01,2013-04-19 09:15:00,
2013-04-19 04:16:00,38.4,28.0,29.68,West,277,0.0,12.0,66,0.00,,OVC031,0.00,VWS V14.01,2013-04-19 09:16:00,
2013-04-19 04:17:00,38.4,28.0,29.68,West,261,3.0,12.0,66,0.00,,OVC031,0.00,VWS V14.01,2013-04-19 09:17:00,
2013-04-19 04:18:00,38.4,28.0,29.68,West,271,11.0,12.0,66,0.00,,OVC031,0.00,VWS V14.01,2013-04-19 09:18:00,
2013-04-19 04:19:00,38.4,28.0,29.68,WNW,294,4.0,12.0,66,0.00,,OVC031,0.00,VWS V14.01,2013-04-19 09:19:00,
2013-04-19 04:20:00,38.4,28.0,29.68,WSW,252,5.0,12.0,66,0.00,,OVC031,0.00,VWS V14.01,2013-04-19 09:20:00,
2013-04-19 04:21:00,38.4,28.0,29.68,West,270,0.0,12.0,66,0.00,,OVC031,0.00,VWS V14.01,2013-04-19 09:21:00,
2013-04-19 04:22:00,38.2,27.9,29.68,West,276,5.0,12.0,66,0.00,,OVC031,0.00,VWS V14.01,2013-04-19 09:22:00,
2013-04-19 04:23:00,38.2,27.5,29.68,WNW,295,9.0,12.0,65,0.00,,OVC031,0.00,VWS V14.01,2013-04-19 09:23:00,
2013-04-19 04:24:00,38.2,27.5,29.68,West,279,5.0,12.0,65,0.00,,OVC031,0.00,VWS V14.01,2013-04-19 09:24:00,
2013-04-19 04:26:00,38.2,27.5,29.68,West,279,6.0,15.0,65,0.00,,OVC031,0.00,VWS V14.01,2013-04-19 09:26:00,
2013-04-19 04:27:00,38.2,27.5,29.68,West,281,4.0,15.0,65,0.00,,OVC031,0.00,VWS V14.01,2013-04-19 09:27:00,
2013-04-19 04:29:00,38.2,27.5,29.68,WSW,239,0.0,15.0,65,0.00,,OVC031,0.00,VWS V14.01,2013-04-19 09:29:00,
2013-04-19 04:30:00,38.2,27.5,29.69,West,281,6.0,17.0,65,0.00,,OVC035,0.00,VWS V14.01,2013-04-19 09:30:00,
2013-04-19 04:31:00,38.2,27.5,29.69,West,263,9.0,13.0,65,0.00,,OVC031,0.00,VWS V14.01,2013-04-19 09:31:00,
2013-04-19 04:32:00,38.2,27.5,29.69,WNW,300,7.0,13.0,65,0.00,,OVC031,0.00,VWS V14.01,2013-04-19 09:32:00,
2013-04-19 04:34:00,38.1,27.4,29.69,WNW,301,7.0,19.0,65,0.00,,OVC031,0.00,VWS V14.01,2013-04-19 09:34:00,
2013-04-19 04:36:00,38.1,27.4,29.69,WNW,292,7.0,19.0,65,0.00,,OVC031,0.00,VWS V14.01,2013-04-19 09:36:00,
2013-04-19 04:37:00,38.1,27.4,29.69,West,269,1.0,19.0,65,0.00,,OVC031,0.00,VWS V14.01,2013-04-19 09:37:00,
2013-04-19 04:39:00,38.1,27.4,29.69,WSW,256,2.0,19.0,65,0.00,,OVC031,0.00,VWS V14.01,2013-04-19 09:39:00,
2013-04-19 04:40:00,38.1,27.0,29.69,West,273,7.0,19.0,64,0.00,,OVC031,0.00,VWS V14.01,2013-04-19 09:40:00,
2013-04-19 04:41:00,38.1,27.0,29.69,WNW,302,2.0,19.0,64,0.00,,OVC031,0.00,VWS V14.01,2013-04-19 09:41:00,
2013-04-19 04:42:00,38.1,27.4,29.69,West,277,2.0,19.0,65,0.00,,OVC031,0.00,VWS V14.01,2013-04-19 09:42:00,
2013-04-19 04:44:00,38.1,27.4,29.69,WNW,292,4.0,19.0,65,0.00,,OVC031,0.00,VWS V14.01,2013-04-19 09:44:00,
2013-04-19 04:46:00,38.1,27.4,29.69,West,281,9.0,19.0,65,0.00,,OVC033,0.00,VWS V14.01,2013-04-19 09:46:00,
2013-04-19 04:47:00,38.1,27.4,29.69,West,275,1.0,19.0,65,0.00,,OVC033,0.00,VWS V14.01,2013-04-19 09:47:00,
2013-04-19 04:49:00,38.1,27.4,29.69,West,269,5.0,19.0,65,0.00,,OVC033,0.00,VWS V14.01,2013-04-19 09:49:00,
2013-04-19 04:51:00,38.1,27.4,29.69,WNW,282,5.0,19.0,65,0.00,,OVC033,0.00,VWS V14.01,2013-04-19 09:51:00,
2013-04-19 04:52:00,38.1,27.4,29.69,WNW,291,1.0,19.0,65,0.00,,OVC033,0.00,VWS V14.01,2013-04-19 09:52:00,
2013-04-19 04:55:00,38.1,27.8,29.69,NW,306,2.0,19.0,66,0.00,,OVC033,0.00,VWS V14.01,2013-04-19 09:55:00,
2013-04-19 04:56:00,38.1,27.8,29.69,West,267,4.0,19.0,66,0.00,,OVC033,0.00,VWS V14.01,2013-04-19 09:56:00,
2013-04-19 04:58:00,38.1,27.8,29.69,West,270,0.0,19.0,66,0.00,,OVC033,0.00,VWS V14.01,2013-04-19 09:58:00,
2013-04-19 05:00:00,38.1,27.4,29.69,West,271,11.0,19.0,65,0.00,,OVC033,0.00,VWS V14.01,2013-04-19 10:00:00,
2013-04-19 05:01:00,38.1,27.4,29.69,SSW,199,6.0,18.0,65,0.00,,OVC031,0.00,VWS V14.01,2013-04-19 10:01:00,
2013-04-19 05:03:00,38.1,27.4,29.69,WSW,253,0.0,18.0,65,0.00,,OVC031,0.00,VWS V14.01,2013-04-19 10:03:00,
2013-04-19 05:05:00,38.1,27.0,29.69,WNW,300,9.0,18.0,64,0.00,,OVC031,0.00,VWS V14.01,2013-04-19 10:05:00,
2013-04-19 05:06:00,38.1,27.0,29.69,NW,312,2.0,18.0,64,0.00,,OVC031,0.00,VWS V14.01,2013-04-19 10:06:00,
2013-04-19 05:08:00,38.1,27.0,29.69,West,270,2.0,18.0,64,0.00,,OVC031,0.00,VWS V14.01,2013-04-19 10:08:00,
2013-04-19 05:10:00,38.2,27.5,29.69,NW,307,6.0,18.0,65,0.00,,OVC031,0.00,VWS V14.01,2013-04-19 10:10:00,
2013-04-19 05:11:00,38.2,27.5,29.69,SW,231,0.0,18.0,65,0.00,,OVC031,0.00,VWS V14.01,2013-04-19 10:11:00,
2013-04-19 05:12:00,38.2,27.5,29.69,SW,232,0.0,18.0,65,0.00,,OVC031,0.00,VWS V14.01,2013-04-19 10:12:00,
2013-04-19 05:13:00,38.2,27.5,29.69,West,277,7.0,18.0,65,0.00,,OVC031,0.00,VWS V14.01,2013-04-19 10:13:00,
2013-04-19 05:15:00,38.2,27.5,29.70,NW,306,2.0,18.0,65,0.00,,OVC033,0.00,VWS V14.01,2013-04-19 10:15:00,
2013-04-19 05:16:00,38.2,27.5,29.70,WNW,286,0.0,18.0,65,0.00,,OVC033,0.00,VWS V14.01,2013-04-19 10:16:00,
2013-04-19 05:17:00,38.2,27.5,29.70,WNW,288,2.0,18.0,65,0.00,,OVC033,0.00,VWS V14.01,2013-04-19 10:17:00,
2013-04-19 05:18:00,38.2,27.5,29.70,SW,235,3.0,18.0,65,0.00,,OVC033,0.00,VWS V14.01,2013-04-19 10:18:00,
2013-04-19 05:20:00,38.2,27.5,29.70,West,281,0.0,18.0,65,0.00,,OVC033,0.00,VWS V14.01,2013-04-19 10:20:00,
2013-04-19 05:21:00,38.2,27.5,29.70,NW,306,4.0,18.0,65,0.00,,OVC033,0.00,VWS V14.01,2013-04-19 10:21:00,
2013-04-19 05:22:00,38.2,27.5,29.70,West,279,5.0,18.0,65,0.00,,OVC033,0.00,VWS V14.01,2013-04-19 10:22:00,
2013-04-19 05:23:00,38.2,27.5,29.70,West,281,0.0,18.0,65,0.00,,OVC033,0.00,VWS V14.01,2013-04-19 10:23:00,
2013-04-19 05:25:00,38.2,27.5,29.70,West,275,3.0,18.0,65,0.00,,OVC033,0.00,VWS V14.01,2013-04-19 10:25:00,
2013-04-19 05:26:00,38.2,27.5,29.70,West,273,8.0,18.0,65,0.00,,OVC033,0.00,VWS V14.01,2013-04-19 10:26:00,
2013-04-19 05:28:00,38.2,27.1,29.70,WNW,289,4.0,18.0,64,0.00,,OVC033,0.00,VWS V14.01,2013-04-19 10:28:00,
2013-04-19 05:30:00,38.2,27.1,29.69,WNW,284,1.0,18.0,64,0.00,,OVC031,0.00,VWS V14.01,2013-04-19 10:30:00,
2013-04-19 05:32:00,38.2,27.5,29.69,West,265,3.0,7.0,65,0.00,,OVC031,0.00,VWS V14.01,2013-04-19 10:32:00,
2013-04-19 05:33:00,38.2,27.5,29.69,WSW,240,0.0,7.0,65,0.00,,OVC031,0.00,VWS V14.01,2013-04-19 10:33:00,
2013-04-19 05:36:00,38.2,27.5,29.69,SW,232,1.0,9.0,65,0.00,,OVC031,0.00,VWS V14.01,2013-04-19 10:36:00,
2013-04-19 05:37:00,38.2,27.5,29.69,WSW,244,0.0,9.0,65,0.00,,OVC031,0.00,VWS V14.01,2013-04-19 10:37:00,
2013-04-19 05:38:00,38.2,27.5,29.69,NW,323,3.0,9.0,65,0.00,,OVC031,0.00,VWS V14.01,2013-04-19 10:38:00,
2013-04-19 05:39:00,38.2,27.5,29.69,West,270,0.0,9.0,65,0.00,,OVC031,0.00,VWS V14.01,2013-04-19 10:39:00,
2013-04-19 05:41:00,38.2,27.9,29.69,WSW,254,0.0,9.0,66,0.00,,OVC031,0.00,VWS V14.01,2013-04-19 10:41:00,
2013-04-19 05:43:00,38.2,27.9,29.69,West,279,0.0,9.0,66,0.00,,OVC031,0.00,VWS V14.01,2013-04-19 10:43:00,
2013-04-19 05:44:00,38.1,27.8,29.69,SW,226,4.0,9.0,66,0.00,,OVC031,0.00,VWS V14.01,2013-04-19 10:44:00,
2013-04-19 05:46:00,38.1,27.8,29.70,West,267,0.0,9.0,66,0.00,,OVC033,0.00,VWS V14.01,2013-04-19 10:46:00,
2013-04-19 05:48:00,38.2,28.2,29.70,West,266,0.0,9.0,67,0.00,,OVC033,0.00,VWS V14.01,2013-04-19 10:48:00,
2013-04-19 05:49:00,38.2,28.2,29.70,West,263,0.0,9.0,67,0.00,,OVC033,0.00,VWS V14.01,2013-04-19 10:49:00,
2013-04-19 05:51:00,38.1,27.8,29.70,West,277,0.0,9.0,66,0.00,,OVC033,0.00,VWS V14.01,2013-04-19 10:51:00,
2013-04-19 05:53:00,38.1,28.1,29.70,WSW,240,0.0,9.0,67,0.00,,OVC033,0.00,VWS V14.01,2013-04-19 10:53:00,
2013-04-19 05:54:00,38.1,28.1,29.70,West,278,7.0,9.0,67,0.00,,OVC033,0.00,VWS V14.01,2013-04-19 10:54:00,
2013-04-19 05:56:00,38.1,28.1,29.70,WSW,239,3.0,13.0,67,0.00,,OVC033,0.00,VWS V14.01,2013-04-19 10:56:00,
2013-04-19 05:59:00,38.1,28.1,29.70,NW,310,3.0,13.0,67,0.00,,OVC033,0.00,VWS V14.01,2013-04-19 10:59:00,
2013-04-19 06:00:00,38.1,28.1,29.71,WNW,298,2.0,13.0,67,0.00,,OVC033,0.00,VWS V14.01,2013-04-19 11:00:00,
2013-04-19 06:01:00,38.1,27.4,29.71,West,265,6.0,9.0,65,0.00,,OVC031,0.00,VWS V14.01,2013-04-19 11:01:00,
2013-04-19 06:04:00,38.1,27.0,29.71,West,279,1.0,12.0,64,0.00,,OVC031,0.00,VWS V14.01,2013-04-19 11:04:00,
2013-04-19 06:05:00,38.1,27.0,29.71,WNW,293,2.0,12.0,64,0.00,,OVC031,0.00,VWS V14.01,2013-04-19 11:05:00,
2013-04-19 06:07:00,38.1,27.0,29.71,WNW,288,2.0,12.0,64,0.00,,OVC031,0.00,VWS V14.01,2013-04-19 11:07:00,
2013-04-19 06:09:00,38.1,27.0,29.71,West,259,0.0,12.0,64,0.00,,OVC031,0.00,VWS V14.01,2013-04-19 11:09:00,
2013-04-19 06:10:00,38.1,27.0,29.71,WSW,248,2.0,12.0,64,0.00,,OVC031,0.00,VWS V14.01,2013-04-19 11:10:00,
2013-04-19 06:12:00,38.1,27.0,29.71,WSW,242,0.0,12.0,64,0.00,,OVC031,0.00,VWS V14.01,2013-04-19 11:12:00,
2013-04-19 06:14:00,38.1,27.0,29.71,West,261,4.0,12.0,64,0.00,,OVC031,0.00,VWS V14.01,2013-04-19 11:14:00,
2013-04-19 06:15:00,38.1,26.6,29.71,West,275,3.0,12.0,63,0.00,,OVC033,0.00,VWS V14.01,2013-04-19 11:15:00,
2013-04-19 06:17:00,38.1,27.0,29.71,West,273,0.0,12.0,64,0.00,,OVC033,0.00,VWS V14.01,2013-04-19 11:17:00,
2013-04-19 06:19:00,38.1,27.0,29.71,West,270,0.0,12.0,64,0.00,,OVC033,0.00,VWS V14.01,2013-04-19 11:19:00,
2013-04-19 06:20:00,38.1,27.4,29.71,WNW,287,0.0,12.0,65,0.00,,OVC033,0.00,VWS V14.01,2013-04-19 11:20:00,
2013-04-19 06:22:00,38.1,27.4,29.71,WNW,288,0.0,12.0,65,0.00,,OVC033,0.00,VWS V14.01,2013-04-19 11:22:00,
2013-04-19 06:24:00,38.1,27.4,29.71,West,267,3.0,12.0,65,0.00,,OVC033,0.00,VWS V14.01,2013-04-19 11:24:00,
2013-04-19 06:25:00,38.1,27.4,29.71,West,272,0.0,12.0,65,0.00,,OVC033,0.00,VWS V14.01,2013-04-19 11:25:00,
2013-04-19 06:26:00,38.1,27.4,29.71,West,269,0.0,12.0,65,0.00,,OVC033,0.00,VWS V14.01,2013-04-19 11:26:00,
2013-04-19 06:27:00,38.1,27.4,29.71,West,273,0.0,12.0,65,0.00,,OVC033,0.00,VWS V14.01,2013-04-19 11:27:00,
2013-04-19 06:29:00,38.1,27.4,29.71,West,274,0.0,12.0,65,0.00,,OVC033,0.00,VWS V14.01,2013-04-19 11:29:00,
2013-04-19 06:30:00,38.1,27.4,29.72,West,274,0.0,12.0,65,0.00,,OVC033,0.00,VWS V14.01,2013-04-19 11:30:00,
2013-04-19 06:31:00,38.1,27.4,29.72,West,259,0.0,0.0,65,0.00,,OVC031,0.00,VWS V14.01,2013-04-19 11:31:00,
2013-04-19 06:32:00,38.1,27.4,29.72,West,262,0.0,4.0,65,0.00,,OVC031,0.00,VWS V14.01,2013-04-19 11:32:00,
2013-04-19 06:35:00,38.1,27.4,29.72,West,264,5.0,18.0,65,0.00,,OVC031,0.00,VWS V14.01,2013-04-19 11:35:00,
2013-04-19 06:36:00,37.9,27.2,29.72,WSW,252,3.0,18.0,65,0.00,,OVC031,0.00,VWS V14.01,2013-04-19 11:36:00,
2013-04-19 06:37:00,38.1,27.4,29.72,West,275,5.0,18.0,65,0.00,,OVC031,0.00,VWS V14.01,2013-04-19 11:37:00,
2013-04-19 06:40:00,38.1,27.4,29.72,West,263,0.0,18.0,65,0.00,,OVC031,0.00,VWS V14.01,2013-04-19 11:40:00,
2013-04-19 06:41:00,38.1,27.4,29.72,West,260,0.0,18.0,65,0.00,,OVC031,0.00,VWS V14.01,2013-04-19 11:41:00,
2013-04-19 06:43:00,38.1,27.4,29.72,West,279,1.0,18.0,65,0.00,,OVC031,0.00,VWS V14.01,2013-04-19 11:43:00,
2013-04-19 06:45:00,37.9,27.2,29.73,West,270,6.0,18.0,65,0.00,,OVC035,0.00,VWS V14.01,2013-04-19 11:45:00,
2013-04-19 06:46:00,37.9,27.2,29.73,West,259,5.0,18.0,65,0.00,,OVC035,0.00,VWS V14.01,2013-04-19 11:46:00,
2013-04-19 06:48:00,37.9,27.2,29.73,West,266,5.0,18.0,65,0.00,,OVC035,0.00,VWS V14.01,2013-04-19 11:48:00,
2013-04-19 06:50:00,37.9,27.6,29.73,WSW,240,0.0,18.0,66,0.00,,OVC035,0.00,VWS V14.01,2013-04-19 11:50:00,
2013-04-19 06:51:00,37.9,27.6,29.73,WNW,293,7.0,18.0,66,0.00,,OVC035,0.00,VWS V14.01,2013-04-19 11:51:00,
2013-04-19 06:53:00,37.9,27.6,29.73,WSW,250,0.0,18.0,66,0.00,,OVC035,0.00,VWS V14.01,2013-04-19 11:53:00,
2013-04-19 06:55:00,37.9,27.6,29.73,West,259,1.0,18.0,66,0.00,,OVC035,0.00,VWS V14.01,2013-04-19 11:55:00,
2013-04-19 06:56:00,37.9,27.6,29.73,West,271,0.0,18.0,66,0.00,,OVC035,0.00,VWS V14.01,2013-04-19 11:56:00,
2013-04-19 06:57:00,37.9,27.6,29.73,SW,233,2.0,18.0,66,0.00,,OVC035,0.00,VWS V14.01,2013-04-19 11:57:00,
2013-04-19 06:58:00,37.9,27.9,29.73,West,267,0.0,18.0,67,0.00,,OVC035,0.00,VWS V14.01,2013-04-19 11:58:00,
2013-04-19 07:00:00,37.9,27.9,29.73,WSW,250,0.0,18.0,67,0.00,,OVC035,0.00,VWS V14.01,2013-04-19 12:00:00,
2013-04-19 07:01:00,37.9,27.9,29.73,WSW,252,0.0,1.0,67,0.00,,OVC035,0.00,VWS V14.01,2013-04-19 12:01:00,
2013-04-19 07:02:00,37.9,28.3,29.73,West,268,3.0,9.0,68,0.00,,OVC035,0.00,VWS V14.01,2013-04-19 12:02:00,
2013-04-19 07:03:00,37.9,28.3,29.73,WSW,244,0.0,9.0,68,0.00,,OVC035,0.00,VWS V14.01,2013-04-19 12:03:00,
2013-04-19 07:06:00,37.8,28.2,29.73,West,260,3.0,12.0,68,0.00,,OVC035,0.00,VWS V14.01,2013-04-19 12:06:00,
2013-04-19 07:07:00,37.8,28.2,29.73,SW,233,2.0,12.0,68,0.00,,OVC035,0.00,VWS V14.01,2013-04-19 12:07:00,
2013-04-19 07:08:00,37.8,28.6,29.73,WSW,256,3.0,12.0,69,0.00,,OVC035,0.00,VWS V14.01,2013-04-19 12:08:00,
2013-04-19 07:11:00,37.8,28.6,29.73,SW,230,5.0,12.0,69,0.00,,OVC035,0.00,VWS V14.01,2013-04-19 12:11:00,
2013-04-19 07:12:00,37.8,28.6,29.73,West,275,9.0,12.0,69,0.00,,OVC035,0.00,VWS V14.01,2013-04-19 12:12:00,
2013-04-19 07:14:00,37.8,28.2,29.73,WSW,256,5.0,13.0,68,0.00,,OVC035,0.00,VWS V14.01,2013-04-19 12:14:00,
2013-04-19 07:16:00,37.8,28.6,29.74,WNW,294,6.0,13.0,69,0.00,,OVC040,0.00,VWS V14.01,2013-04-19 12:16:00,
2013-04-19 07:17:00,37.8,28.6,29.74,West,265,7.0,13.0,69,0.00,,OVC040,0.00,VWS V14.01,2013-04-19 12:17:00,
2013-04-19 07:19:00,37.9,28.3,29.74,WSW,252,3.0,13.0,68,0.00,,OVC040,0.00,VWS V14.01,2013-04-19 12:19:00,
2013-04-19 07:21:00,37.9,28.6,29.74,WNW,284,4.0,14.0,69,0.00,,OVC040,0.00,VWS V14.01,2013-04-19 12:21:00,
2013-04-19 07:22:00,37.8,28.2,29.74,West,273,7.0,14.0,68,0.00,,OVC040,0.00,VWS V14.01,2013-04-19 12:22:00,
2013-04-19 07:24:00,37.8,28.2,29.74,West,281,4.0,14.0,68,0.00,,OVC040,0.00,VWS V14.01,2013-04-19 12:24:00,
2013-04-19 07:26:00,37.8,28.6,29.74,WNW,290,5.0,14.0,69,0.00,,OVC040,0.00,VWS V14.01,2013-04-19 12:26:00,
2013-04-19 07:27:00,37.8,28.6,29.74,NW,325,11.0,14.0,69,0.00,,OVC040,0.00,VWS V14.01,2013-04-19 12:27:00,
2013-04-19 07:28:00,37.8,28.2,29.74,SW,229,4.0,14.0,68,0.00,,OVC040,0.00,VWS V14.01,2013-04-19 12:28:00,
2013-04-19 07:29:00,37.8,28.2,29.74,West,273,6.0,14.0,68,0.00,,OVC040,0.00,VWS V14.01,2013-04-19 12:29:00,
2013-04-19 07:30:00,37.7,27.8,29.76,West,269,5.0,14.0,67,0.00,,OVC035,0.00,VWS V14.01,2013-04-19 12:30:00,
2013-04-19 07:31:00,37.7,27.8,29.76,WNW,295,4.0,14.0,67,0.00,,OVC040,0.00,VWS V14.01,2013-04-19 12:31:00,
2013-04-19 07:32:00,37.7,27.8,29.76,WSW,246,3.0,14.0,67,0.00,,OVC040,0.00,VWS V14.01,2013-04-19 12:32:00,
2013-04-19 07:33:00,37.7,27.8,29.76,WSW,258,3.0,14.0,67,0.00,,OVC040,0.00,VWS V14.01,2013-04-19 12:33:00,
2013-04-19 07:34:00,37.7,27.8,29.76,West,271,2.0,14.0,67,0.00,,OVC040,0.00,VWS V14.01,2013-04-19 12:34:00,
2013-04-19 07:37:00,37.7,27.8,29.76,WSW,253,2.0,14.0,67,0.00,,OVC040,0.00,VWS V14.01,2013-04-19 12:37:00,
2013-04-19 07:38:00,37.7,27.8,29.76,WSW,242,4.0,14.0,67,0.00,,OVC040,0.00,VWS V14.01,2013-04-19 12:38:00,
2013-04-19 07:39:00,37.7,27.8,29.76,West,275,5.0,14.0,67,0.00,,OVC040,0.00,VWS V14.01,2013-04-19 12:39:00,
2013-04-19 07:42:00,37.7,27.0,29.76,West,280,4.0,15.0,65,0.00,,OVC040,0.00,VWS V14.01,2013-04-19 12:42:00,
2013-04-19 07:43:00,37.7,27.0,29.76,WNW,287,3.0,15.0,65,0.00,,OVC040,0.00,VWS V14.01,2013-04-19 12:43:00,
2013-04-19 07:44:00,37.7,27.0,29.76,WNW,298,10.0,19.0,65,0.00,,OVC040,0.00,VWS V14.01,2013-04-19 12:44:00,
2013-04-19 07:47:00,37.7,27.0,29.77,West,278,12.0,19.0,65,0.00,,OVC040,0.00,VWS V14.01,2013-04-19 12:47:00,
2013-04-19 07:48:00,37.7,27.0,29.77,NW,306,3.0,19.0,65,0.00,,OVC040,0.00,VWS V14.01,2013-04-19 12:48:00,
2013-04-19 07:49:00,37.7,27.0,29.77,WSW,253,4.0,19.0,65,0.00,,OVC040,0.00,VWS V14.01,2013-04-19 12:49:00,
2013-04-19 07:52:00,37.5,26.8,29.77,West,271,4.0,19.0,65,0.00,,OVC040,0.00,VWS V14.01,2013-04-19 12:52:00,
2013-04-19 07:53:00,37.5,26.8,29.77,West,279,0.0,19.0,65,0.00,,OVC040,0.00,VWS V14.01,2013-04-19 12:53:00,
2013-04-19 07:54:00,37.7,27.0,29.77,NW,317,3.0,19.0,65,0.00,,OVC040,0.00,VWS V14.01,2013-04-19 12:54:00,
2013-04-19 07:58:00,37.5,26.5,29.77,NW,307,14.0,19.0,64,0.00,,OVC040,0.00,VWS V14.01,2013-04-19 12:58:00,
2013-04-19 07:59:00,37.5,26.5,29.77,NW,304,3.0,19.0,64,0.00,,OVC040,0.00,VWS V14.01,2013-04-19 12:59:00,
2013-04-19 08:00:00,37.4,26.4,29.77,SW,216,3.0,19.0,64,0.00,,OVC035,0.00,VWS V14.01,2013-04-19 13:00:00,
2013-04-19 08:03:00,37.4,26.4,29.77,WNW,300,1.0,11.0,64,0.00,,OVC038,0.00,VWS V14.01,2013-04-19 13:03:00,
2013-04-19 08:04:00,37.4,26.4,29.77,WNW,291,7.0,11.0,64,0.00,,OVC038,0.00,VWS V14.01,2013-04-19 13:04:00,
2013-04-19 08:08:00,37.2,26.2,29.77,West,260,3.0,16.0,64,0.00,,OVC038,0.00,VWS V14.01,2013-04-19 13:08:00,
2013-04-19 08:09:00,37.2,26.5,29.77,West,263,3.0,16.0,65,0.00,,OVC038,0.00,VWS V14.01,2013-04-19 13:09:00,
2013-04-19 08:13:00,37.1,26.8,29.77,WNW,296,0.0,16.0,66,0.00,,OVC038,0.00,VWS V14.01,2013-04-19 13:13:00,
2013-04-19 08:14:00,37.2,26.9,29.77,SSW,208,2.0,16.0,66,0.00,,OVC038,0.00,VWS V14.01,2013-04-19 13:14:00,
2013-04-19 08:18:00,37.2,27.3,29.78,WSW,251,4.0,16.0,67,0.00,,OVC038,0.00,VWS V14.01,2013-04-19 13:18:00,
2013-04-19 08:19:00,37.2,27.3,29.78,West,279,5.0,16.0,67,0.00,,OVC038,0.00,VWS V14.01,2013-04-19 13:19:00,
2013-04-19 08:20:00,37.1,27.2,29.78,West,263,2.0,16.0,67,0.00,,OVC038,0.00,VWS V14.01,2013-04-19 13:20:00,
2013-04-19 08:23:00,37.1,27.5,29.78,WSW,249,3.0,16.0,68,0.00,,OVC038,0.00,VWS V14.01,2013-04-19 13:23:00,
2013-04-19 08:24:00,37.1,27.5,29.78,West,273,3.0,16.0,68,0.00,,OVC038,0.00,VWS V14.01,2013-04-19 13:24:00,
2013-04-19 08:25:00,37.1,27.5,29.78,West,270,0.0,16.0,68,0.00,,OVC038,0.00,VWS V14.01,2013-04-19 13:25:00,
2013-04-19 08:29:00,37.1,27.9,29.78,WSW,248,4.0,16.0,69,0.00,,OVC038,0.00,VWS V14.01,2013-04-19 13:29:00,
2013-04-19 08:30:00,36.9,27.7,29.78,WNW,288,6.0,16.0,69,0.00,,OVC038,0.00,VWS V14.01,2013-04-19 13:30:00,
2013-04-19 08:34:00,36.9,27.7,29.78,WSW,254,2.0,7.0,69,0.00,,OVC038,0.00,VWS V14.01,2013-04-19 13:34:00,
2013-04-19 08:35:00,36.9,28.0,29.78,West,266,4.0,7.0,70,0.00,,OVC038,0.00,VWS V14.01,2013-04-19 13:35:00,
2013-04-19 08:39:00,36.9,28.0,29.78,WSW,249,0.0,12.0,70,0.00,,OVC038,0.00,VWS V14.01,2013-04-19 13:39:00,
2013-04-19 08:40:00,36.9,28.0,29.78,West,281,4.0,12.0,70,0.00,,OVC038,0.00,VWS V14.01,2013-04-19 13:40:00,
2013-04-19 08:44:00,36.8,28.3,29.78,West,267,0.0,12.0,71,0.00,,OVC038,0.00,VWS V14.01,2013-04-19 13:44:00,
2013-04-19 08:45:00,36.8,28.6,29.79,WSW,252,1.0,12.0,72,0.00,,OVC037,0.00,VWS V14.01,2013-04-19 13:45:00,
2013-04-19 08:49:00,36.8,28.6,29.79,WNW,285,4.0,12.0,72,0.00,,OVC037,0.00,VWS V14.01,2013-04-19 13:49:00,
2013-04-19 08:50:00,36.7,28.5,29.79,West,271,0.0,12.0,72,0.00,,OVC037,0.00,VWS V14.01,2013-04-19 13:50:00,
2013-04-19 08:51:00,36.7,28.5,29.79,SW,217,5.0,12.0,72,0.00,,OVC037,0.00,VWS V14.01,2013-04-19 13:51:00,
2013-04-19 08:54:00,36.7,28.5,29.79,WSW,250,4.0,16.0,72,0.00,,OVC037,0.00,VWS V14.01,2013-04-19 13:54:00,
2013-04-19 08:55:00,36.7,28.5,29.79,WSW,254,2.0,16.0,72,0.00,,OVC037,0.00,VWS V14.01,2013-04-19 13:55:00,
2013-04-19 08:56:00,36.7,28.2,29.79,West,281,6.0,16.0,71,0.00,,OVC037,0.00,VWS V14.01,2013-04-19 13:56:00,
2013-04-19 08:59:00,36.7,28.2,29.79,West,273,0.0,16.0,71,0.00,,OVC037,0.00,VWS V14.01,2013-04-19 13:59:00,
2013-04-19 09:00:00,36.7,28.2,29.79,West,273,0.0,16.0,71,0.00,,OVC037,0.00,VWS V14.01,2013-04-19 14:00:00,
2013-04-19 09:01:00,36.8,28.3,29.79,West,281,11.0,12.0,71,0.00,,OVC034,0.00,VWS V14.01,2013-04-19 14:01:00,
2013-04-19 09:04:00,36.8,28.0,29.79,WSW,251,2.0,14.0,70,0.00,,OVC034,0.00,VWS V14.01,2013-04-19 14:04:00,
2013-04-19 09:05:00,36.8,28.0,29.79,WSW,251,1.0,14.0,70,0.00,,OVC034,0.00,VWS V14.01,2013-04-19 14:05:00,
2013-04-19 09:06:00,36.9,28.0,29.79,WSW,252,0.0,14.0,70,0.00,,OVC034,0.00,VWS V14.01,2013-04-19 14:06:00,
2013-04-19 09:09:00,36.9,28.0,29.79,SW,222,10.0,14.0,70,0.00,,OVC034,0.00,VWS V14.01,2013-04-19 14:09:00,
2013-04-19 09:10:00,36.9,28.0,29.79,West,261,2.0,14.0,70,0.00,,OVC034,0.00,VWS V14.01,2013-04-19 14:10:00,
2013-04-19 09:11:00,36.9,28.0,29.79,SW,236,3.0,14.0,70,0.00,,OVC034,0.00,VWS V14.01,2013-04-19 14:11:00,
2013-04-19 09:15:00,36.9,28.0,29.79,WSW,248,0.0,14.0,70,0.00,,OVC034,0.00,VWS V14.01,2013-04-19 14:15:00,
2013-04-19 09:16:00,36.9,28.0,29.79,WSW,240,1.0,14.0,70,0.00,,OVC034,0.00,VWS V14.01,2013-04-19 14:16:00,
2013-04-19 09:17:00,36.9,28.0,29.79,WSW,252,0.0,14.0,70,0.00,,OVC034,0.00,VWS V14.01,2013-04-19 14:17:00,
2013-04-19 09:20:00,36.9,27.7,29.79,WSW,242,0.0,14.0,69,0.00,,OVC034,0.00,VWS V14.01,2013-04-19 14:20:00,
2013-04-19 09:21:00,36.9,28.0,29.79,West,263,3.0,14.0,70,0.00,,OVC034,0.00,VWS V14.01,2013-04-19 14:21:00,
2013-04-19 09:22:00,37.1,27.9,29.79,SW,236,6.0,14.0,69,0.00,,OVC034,0.00,VWS V14.01,2013-04-19 14:22:00,
2013-04-19 09:25:00,36.9,27.0,29.79,SW,233,4.0,15.0,67,0.00,,OVC034,0.00,VWS V14.01,2013-04-19 14:25:00,
2013-04-19 09:26:00,36.9,27.0,29.79,West,260,4.0,15.0,67,0.00,,OVC034,0.00,VWS V14.01,2013-04-19 14:26:00,
2013-04-19 09:27:00,36.9,27.0,29.79,West,259,3.0,15.0,67,0.00,,OVC034,0.00,VWS V14.01,2013-04-19 14:27:00,
2013-04-19 09:30:00,36.9,27.0,29.79,WSW,246,7.0,15.0,67,0.00,,OVC034,0.00,VWS V14.01,2013-04-19 14:30:00,
2013-04-19 09:31:00,36.9,27.0,29.79,North,360,6.0,6.0,67,0.00,,OVC034,0.00,VWS V14.01,2013-04-19 14:31:00,
2013-04-19 09:32:00,36.9,26.6,29.79,SW,227,4.0,6.0,66,0.00,,OVC034,0.00,VWS V14.01,2013-04-19 14:32:00,
2013-04-19 09:35:00,37.1,26.4,29.79,SW,225,2.0,14.0,65,0.00,,OVC034,0.00,VWS V14.01,2013-04-19 14:35:00,
2013-04-19 09:36:00,37.1,26.4,29.79,WNW,284,5.0,14.0,65,0.00,,OVC034,0.00,VWS V14.01,2013-04-19 14:36:00,
2013-04-19 09:37:00,37.1,26.4,29.79,West,271,12.0,15.0,65,0.00,,OVC034,0.00,VWS V14.01,2013-04-19 14:37:00,
2013-04-19 09:40:00,37.1,26.4,29.79,WNW,288,9.0,15.0,65,0.00,,OVC034,0.00,VWS V14.01,2013-04-19 14:40:00,
2013-04-19 09:41:00,37.1,26.4,29.79,WSW,256,4.0,15.0,65,0.00,,OVC034,0.00,VWS V14.01,2013-04-19 14:41:00,
2013-04-19 09:42:00,37.2,26.5,29.79,West,273,4.0,15.0,65,0.00,,OVC034,0.00,VWS V14.01,2013-04-19 14:42:00,
2013-04-19 09:46:00,37.2,26.5,29.79,West,281,5.0,15.0,65,0.00,,OVC036,0.00,VWS V14.01,2013-04-19 14:46:00,
2013-04-19 09:47:00,37.2,26.9,29.79,West,275,7.0,15.0,66,0.00,,OVC036,0.00,VWS V14.01,2013-04-19 14:47:00,
2013-04-19 09:51:00,37.2,26.5,29.79,WSW,246,3.0,15.0,65,0.00,,OVC036,0.00,VWS V14.01,2013-04-19 14:51:00,
2013-04-19 09:52:00,37.2,26.5,29.79,West,273,2.0,15.0,65,0.00,,OVC036,0.00,VWS V14.01,2013-04-19 14:52:00,
2013-04-19 09:56:00,37.5,26.8,29.79,SW,224,2.0,15.0,65,0.00,,OVC036,0.00,VWS V14.01,2013-04-19 14:56:00,
2013-04-19 09:57:00,37.5,27.2,29.79,SW,233,3.0,15.0,66,0.00,,OVC036,0.00,VWS V14.01,2013-04-19 14:57:00,
2013-04-19 09:58:00,37.5,26.8,29.79,WSW,243,3.0,15.0,65,0.00,,OVC036,0.00,VWS V14.01,2013-04-19 14:58:00,
2013-04-19 10:00:00,37.5,26.1,29.79,WNW,284,4.0,19.0,63,0.00,,OVC035,0.00,VWS V14.01,2013-04-19 15:00:00,
2013-04-19 10:01:00,37.5,26.1,29.79,West,268,1.0,4.0,63,0.00,,OVC038,0.00,VWS V14.01,2013-04-19 15:01:00,
2013-04-19 10:02:00,37.5,26.1,29.79,WSW,257,1.0,4.0,63,0.00,,OVC038,0.00,VWS V14.01,2013-04-19 15:02:00,
2013-04-19 10:03:00,37.7,26.6,29.79,West,277,4.0,4.0,64,0.00,,OVC038,0.00,VWS V14.01,2013-04-19 15:03:00,
2013-04-19 10:06:00,37.7,26.3,29.79,WSW,244,2.0,7.0,63,0.00,,OVC038,0.00,VWS V14.01,2013-04-19 15:06:00,
2013-04-19 10:07:00,37.8,26.7,29.79,West,265,4.0,7.0,64,0.00,,OVC038,0.00,VWS V14.01,2013-04-19 15:07:00,
2013-04-19 10:08:00,37.8,26.7,29.79,WSW,250,4.0,9.0,64,0.00,,OVC038,0.00,VWS V14.01,2013-04-19 15:08:00,
2013-04-19 10:11:00,37.8,26.7,29.79,SW,234,2.0,9.0,64,0.00,,OVC038,0.00,VWS V14.01,2013-04-19 15:11:00,
2013-04-19 10:12:00,37.8,26.7,29.79,WSW,238,0.0,9.0,64,0.00,,OVC038,0.00,VWS V14.01,2013-04-19 15:12:00,
2013-04-19 10:13:00,37.8,26.7,29.79,WSW,256,3.0,9.0,64,0.00,,OVC038,0.00,VWS V14.01,2013-04-19 15:13:00,
2013-04-19 10:16:00,37.8,26.7,29.79,WSW,243,0.0,9.0,64,0.00,,OVC038,0.00,VWS V14.01,2013-04-19 15:16:00,
2013-04-19 10:17:00,37.8,26.7,29.79,WSW,254,2.0,9.0,64,0.00,,OVC038,0.00,VWS V14.01,2013-04-19 15:17:00,
2013-04-19 10:18:00,37.8,26.7,29.79,SW,232,5.0,12.0,64,0.00,,OVC038,0.00,VWS V14.01,2013-04-19 15:18:00,
2013-04-19 10:19:00,37.8,26.4,29.79,WSW,246,6.0,12.0,63,0.00,,OVC038,0.00,VWS V14.01,2013-04-19 15:19:00,
2013-04-19 10:21:00,37.8,26.4,29.79,SW,232,1.0,12.0,63,0.00,,OVC038,0.00,VWS V14.01,2013-04-19 15:21:00,
2013-04-19 10:22:00,37.8,26.4,29.79,SW,232,0.0,12.0,63,0.00,,OVC038,0.00,VWS V14.01,2013-04-19 15:22:00,
2013-04-19 10:24:00,37.8,26.7,29.79,WSW,242,2.0,12.0,64,0.00,,OVC038,0.00,VWS V14.01,2013-04-19 15:24:00,
2013-04-19 10:27:00,37.8,26.7,29.79,WSW,255,8.0,17.0,64,0.00,,OVC038,0.00,VWS V14.01,2013-04-19 15:27:00,
2013-04-19 10:29:00,37.8,26.4,29.79,WSW,258,0.0,17.0,63,0.00,,OVC038,0.00,VWS V14.01,2013-04-19 15:29:00,
2013-04-19 10:30:00,37.8,26.7,29.79,SW,232,6.0,17.0,64,0.00,,OVC035,0.00,VWS V14.01,2013-04-19 15:30:00,
2013-04-19 10:32:00,37.8,26.4,29.79,WNW,291,11.0,11.0,63,0.00,,OVC038,0.00,VWS V14.01,2013-04-19 15:32:00,
2013-04-19 10:33:00,37.8,26.4,29.79,West,264,6.0,11.0,63,0.00,,OVC038,0.00,VWS V14.01,2013-04-19 15:33:00,
2013-04-19 10:34:00,37.8,26.4,29.79,West,264,7.0,11.0,63,0.00,,OVC038,0.00,VWS V14.01,2013-04-19 15:34:00,
2013-04-19 10:37:00,37.8,26.4,29.79,WSW,244,2.0,18.0,63,0.00,,OVC038,0.00,VWS V14.01,2013-04-19 15:37:00,
2013-04-19 10:38:00,37.8,26.4,29.79,SW,223,3.0,18.0,63,0.00,,OVC038,0.00,VWS V14.01,2013-04-19 15:38:00,
2013-04-19 10:39:00,37.8,26.7,29.79,SW,232,4.0,18.0,64,0.00,,OVC038,0.00,VWS V14.01,2013-04-19 15:39:00,
2013-04-19 10:43:00,37.8,26.4,29.79,WSW,253,9.0,18.0,63,0.00,,OVC038,0.00,VWS V14.01,2013-04-19 15:43:00,
2013-04-19 10:44:00,37.8,26.4,29.79,West,269,2.0,18.0,63,0.00,,OVC038,0.00,VWS V14.01,2013-04-19 15:44:00,
2013-04-19 10:48:00,37.9,26.5,29.80,West,280,9.0,18.0,63,0.00,,OVC038,0.00,VWS V14.01,2013-04-19 15:48:00,
2013-04-19 10:49:00,37.9,26.5,29.80,West,273,6.0,18.0,63,0.00,,OVC038,0.00,VWS V14.01,2013-04-19 15:49:00,
2013-04-19 10:50:00,37.9,26.5,29.80,WSW,251,2.0,18.0,63,0.00,,OVC038,0.00,VWS V14.01,2013-04-19 15:50:00,
2013-04-19 10:53:00,38.1,27.0,29.80,SW,221,1.0,18.0,64,0.00,,OVC038,0.00,VWS V14.01,2013-04-19 15:53:00,
2013-04-19 10:54:00,38.1,27.0,29.80,SW,234,1.0,18.0,64,0.00,,OVC038,0.00,VWS V14.01,2013-04-19 15:54:00,
2013-04-19 10:55:00,38.1,27.0,29.80,WSW,248,2.0,18.0,64,0.00,,OVC038,0.00,VWS V14.01,2013-04-19 15:55:00,
2013-04-19 10:58:00,38.1,26.6,29.80,WSW,239,3.0,18.0,63,0.00,,OVC038,0.00,VWS V14.01,2013-04-19 15:58:00,
2013-04-19 10:59:00,38.1,26.6,29.80,West,267,6.0,18.0,63,0.00,,OVC038,0.00,VWS V14.01,2013-04-19 15:59:00,
2013-04-19 11:00:00,38.1,27.0,29.80,SW,227,3.0,18.0,64,0.00,,OVC038,0.00,VWS V14.01,2013-04-19 16:00:00,
2013-04-19 11:03:00,38.1,26.6,29.80,WSW,243,3.0,11.0,63,0.00,,OVC035,0.00,VWS V14.01,2013-04-19 16:03:00,
2013-04-19 11:04:00,38.1,26.6,29.80,West,277,3.0,11.0,63,0.00,,OVC035,0.00,VWS V14.01,2013-04-19 16:04:00,
2013-04-19 11:05:00,38.1,26.6,29.80,SSW,207,4.0,11.0,63,0.00,,OVC035,0.00,VWS V14.01,2013-04-19 16:05:00,
2013-04-19 11:08:00,38.1,26.6,29.80,SW,229,0.0,11.0,63,0.00,,OVC035,0.00,VWS V14.01,2013-04-19 16:08:00,
2013-04-19 11:09:00,38.1,26.6,29.80,SW,229,0.0,11.0,63,0.00,,OVC035,0.00,VWS V14.01,2013-04-19 16:09:00,
2013-04-19 11:10:00,38.2,26.7,29.80,West,275,10.0,11.0,63,0.00,,OVC035,0.00,VWS V14.01,2013-04-19 16:10:00,
2013-04-19 11:14:00,38.2,27.1,29.80,SW,235,4.0,11.0,64,0.00,,OVC035,0.00,VWS V14.01,2013-04-19 16:14:00,
2013-04-19 11:15:00,38.4,27.3,29.81,WSW,253,0.0,11.0,64,0.00,,OVC035,0.00,VWS V14.01,2013-04-19 16:15:00,
2013-04-19 11:19:00,38.5,27.4,29.81,SW,221,0.0,11.0,64,0.00,,OVC035,0.00,VWS V14.01,2013-04-19 16:19:00,
2013-04-19 11:20:00,38.5,27.4,29.81,SW,233,4.0,11.0,64,0.00,,OVC035,0.00,VWS V14.01,2013-04-19 16:20:00,
2013-04-19 11:24:00,38.5,27.0,29.81,WNW,285,3.0,11.0,63,0.00,,OVC035,0.00,VWS V14.01,2013-04-19 16:24:00,
2013-04-19 11:25:00,38.5,27.4,29.81,WSW,252,7.0,11.0,64,0.00,,OVC035,0.00,VWS V14.01,2013-04-19 16:25:00,
2013-04-19 11:26:00,38.5,27.0,29.81,WSW,240,3.0,11.0,63,0.00,,OVC035,0.00,VWS V14.01,2013-04-19 16:26:00,
2013-04-19 11:29:00,38.5,26.6,29.81,SW,221,2.0,16.0,62,0.00,,OVC035,0.00,VWS V14.01,2013-04-19 16:29:00,
2013-04-19 11:30:00,38.5,27.0,29.81,West,267,4.0,16.0,63,0.00,,OVC035,0.00,VWS V14.01,2013-04-19 16:30:00,
2013-04-19 11:31:00,38.5,27.0,29.81,West,259,10.0,13.0,63,0.00,,OVC035,0.00,VWS V14.01,2013-04-19 16:31:00,
2013-04-19 11:34:00,38.7,26.8,29.81,SW,229,5.0,13.0,62,0.00,,OVC035,0.00,VWS V14.01,2013-04-19 16:34:00,
2013-04-19 11:35:00,38.7,26.8,29.81,SW,236,0.0,13.0,62,0.00,,OVC035,0.00,VWS V14.01,2013-04-19 16:35:00,
2013-04-19 11:36:00,38.7,26.8,29.81,SW,221,4.0,13.0,62,0.00,,OVC035,0.00,VWS V14.01,2013-04-19 16:36:00,
2013-04-19 11:40:00,38.8,26.9,29.81,West,260,7.0,13.0,62,0.00,,OVC035,0.00,VWS V14.01,2013-04-19 16:40:00,
2013-04-19 11:41:00,39.0,27.1,29.81,West,281,3.0,13.0,62,0.00,,OVC035,0.00,VWS V14.01,2013-04-19 16:41:00,
2013-04-19 11:45:00,39.1,27.6,29.81,West,274,0.0,13.0,63,0.00,,OVC041,0.00,VWS V14.01,2013-04-19 16:45:00,
2013-04-19 11:46:00,39.1,27.6,29.81,SW,215,2.0,13.0,63,0.00,,OVC041,0.00,VWS V14.01,2013-04-19 16:46:00,
2013-04-19 11:50:00,38.8,26.9,29.81,WSW,255,3.0,15.0,62,0.00,,OVC041,0.00,VWS V14.01,2013-04-19 16:50:00,
2013-04-19 11:51:00,38.8,26.9,29.81,SW,233,6.0,15.0,62,0.00,,OVC041,0.00,VWS V14.01,2013-04-19 16:51:00,
2013-04-19 11:52:00,38.8,26.9,29.81,WSW,250,4.0,15.0,62,0.00,,OVC041,0.00,VWS V14.01,2013-04-19 16:52:00,
2013-04-19 11:56:00,38.7,26.8,29.81,WNW,282,6.0,16.0,62,0.00,,OVC041,0.00,VWS V14.01,2013-04-19 16:56:00,
2013-04-19 11:57:00,38.7,26.8,29.81,West,263,1.0,16.0,62,0.00,,OVC041,0.00,VWS V14.01,2013-04-19 16:57:00,
2013-04-19 12:00:00,38.8,27.7,29.81,SW,227,0.0,16.0,64,0.00,,BKN075,0.00,VWS V14.01,2013-04-19 17:00:00,
2013-04-19 12:01:00,38.8,27.7,29.81,SW,227,0.0,0.0,64,0.00,,OVC043,0.00,VWS V14.01,2013-04-19 17:01:00,
2013-04-19 12:02:00,38.8,27.7,29.81,SW,227,0.0,0.0,64,0.00,,OVC043,0.00,VWS V14.01,2013-04-19 17:02:00,
2013-04-19 12:06:00,39.0,27.5,29.81,SSW,213,2.0,11.0,63,0.00,,OVC043,0.00,VWS V14.01,2013-04-19 17:06:00,
2013-04-19 12:07:00,39.0,27.9,29.81,SW,221,3.0,11.0,64,0.00,,OVC043,0.00,VWS V14.01,2013-04-19 17:07:00,
2013-04-19 12:11:00,39.2,28.1,29.81,SW,217,3.0,11.0,64,0.00,,OVC043,0.00,VWS V14.01,2013-04-19 17:11:00,
2013-04-19 12:12:00,39.2,27.7,29.81,NW,321,5.0,11.0,63,0.00,,OVC043,0.00,VWS V14.01,2013-04-19 17:12:00,
2013-04-19 12:13:00,39.4,27.9,29.81,WSW,258,13.0,13.0,63,0.00,,OVC043,0.00,VWS V14.01,2013-04-19 17:13:00,
2013-04-19 12:16:00,39.2,26.9,29.82,NW,318,9.0,13.0,61,0.00,,OVC041,0.00,VWS V14.01,2013-04-19 17:16:00,
2013-04-19 12:17:00,39.2,26.9,29.82,West,271,4.0,15.0,61,0.00,,OVC041,0.00,VWS V14.01,2013-04-19 17:17:00,
2013-04-19 12:18:00,39.2,26.9,29.82,WSW,240,2.0,15.0,61,0.00,,OVC041,0.00,VWS V14.01,2013-04-19 17:18:00,
2013-04-19 12:22:00,39.2,27.3,29.82,WSW,256,1.0,15.0,62,0.00,,OVC041,0.00,VWS V14.01,2013-04-19 17:22:00,
2013-04-19 12:23:00,39.2,27.3,29.82,SW,233,4.0,15.0,62,0.00,,OVC041,0.00,VWS V14.01,2013-04-19 17:23:00,
2013-04-19 12:24:00,39.2,27.3,29.82,SW,217,3.0,15.0,62,0.00,,OVC041,0.00,VWS V14.01,2013-04-19 17:24:00,
2013-04-19 12:27:00,39.2,27.7,29.82,WSW,240,5.0,15.0,63,0.00,,OVC041,0.00,VWS V14.01,2013-04-19 17:27:00,
2013-04-19 12:28:00,39.2,27.3,29.82,SSW,212,7.0,15.0,62,0.00,,OVC041,0.00,VWS V14.01,2013-04-19 17:28:00,
2013-04-19 12:29:00,39.4,27.5,29.82,West,262,5.0,15.0,62,0.00,,OVC041,0.00,VWS V14.01,2013-04-19 17:29:00,
2013-04-19 12:30:00,39.4,27.5,29.82,SW,221,4.0,15.0,62,0.00,,BKN075,0.00,VWS V14.01,2013-04-19 17:30:00,
2013-04-19 12:32:00,39.4,27.5,29.82,SW,236,1.0,5.0,62,0.00,,OVC043,0.00,VWS V14.01,2013-04-19 17:32:00,
2013-04-19 12:33:00,39.5,28.0,29.82,SW,227,8.0,15.0,63,0.00,,OVC043,0.00,VWS V14.01,2013-04-19 17:33:00,
2013-04-19 12:34:00,39.5,27.6,29.82,West,267,0.0,15.0,62,0.00,,OVC043,0.00,VWS V14.01,2013-04-19 17:34:00,
2013-04-19 12:37:00,39.8,27.9,29.82,West,264,6.0,15.0,62,0.00,,OVC043,0.00,VWS V14.01,2013-04-19 17:37:00,
2013-04-19 12:38:00,40.0,28.0,29.82,SSW,213,2.0,15.0,62,0.00,,OVC043,0.00,VWS V14.01,2013-04-19 17:38:00,
2013-04-19 12:39:00,40.0,28.0,29.82,SW,216,1.0,15.0,62,0.00,,OVC043,0.00,VWS V14.01,2013-04-19 17:39:00,
2013-04-19 12:42:00,40.7,28.7,29.82,NW,305,6.0,15.0,62,0.00,,OVC043,0.00,VWS V14.01,2013-04-19 17:42:00,
2013-04-19 12:44:00,40.7,27.9,29.82,WSW,244,0.0,17.0,60,0.00,,OVC043,0.00,VWS V14.01,2013-04-19 17:44:00,
2013-04-19 12:47:00,40.5,27.7,29.82,WSW,244,8.0,17.0,60,0.00,,OVC041,0.00,VWS V14.01,2013-04-19 17:47:00,
2013-04-19 12:49:00,40.2,27.0,29.82,West,261,2.0,17.0,59,0.00,,OVC041,0.00,VWS V14.01,2013-04-19 17:49:00,
2013-04-19 12:50:00,40.2,27.4,29.82,WSW,247,1.0,17.0,60,0.00,,OVC041,0.00,VWS V14.01,2013-04-19 17:50:00,
2013-04-19 12:52:00,40.1,27.4,29.82,WNW,288,2.0,17.0,60,0.00,,OVC041,0.00,VWS V14.01,2013-04-19 17:52:00,
2013-04-19 12:54:00,40.1,27.8,29.82,West,279,6.0,17.0,61,0.00,,OVC041,0.00,VWS V14.01,2013-04-19 17:54:00,
2013-04-19 12:55:00,40.1,28.1,29.82,WSW,240,4.0,17.0,62,0.00,,OVC041,0.00,VWS V14.01,2013-04-19 17:55:00,
2013-04-19 12:57:00,40.0,28.0,29.82,WSW,249,1.0,17.0,62,0.00,,OVC041,0.00,VWS V14.01,2013-04-19 17:57:00,
2013-04-19 12:59:00,40.0,28.0,29.82,SW,227,3.0,17.0,62,0.00,,OVC041,0.00,VWS V14.01,2013-04-19 17:59:00,
2013-04-19 13:00:00,40.1,28.1,29.82,West,263,3.0,17.0,62,0.00,,OVC041,0.00,VWS V14.01,2013-04-19 18:00:00,
2013-04-19 13:02:00,40.1,28.1,29.82,SW,218,4.0,14.0,62,0.00,,OVC050,0.00,VWS V14.01,2013-04-19 18:02:00,
2013-04-19 13:04:00,40.1,28.1,29.82,SW,224,3.0,14.0,62,0.00,,OVC050,0.00,VWS V14.01,2013-04-19 18:04:00,
2013-04-19 13:05:00,40.1,28.1,29.82,SW,220,10.0,14.0,62,0.00,,OVC050,0.00,VWS V14.01,2013-04-19 18:05:00,
2013-04-19 13:07:00,40.1,28.1,29.82,West,276,5.0,14.0,62,0.00,,OVC050,0.00,VWS V14.01,2013-04-19 18:07:00,
2013-04-19 13:09:00,40.2,28.2,29.82,West,272,0.0,14.0,62,0.00,,OVC050,0.00,VWS V14.01,2013-04-19 18:09:00,
2013-04-19 13:10:00,40.2,28.2,29.82,West,271,0.0,14.0,62,0.00,,OVC050,0.00,VWS V14.01,2013-04-19 18:10:00,
2013-04-19 13:11:00,40.4,28.4,29.82,West,259,4.0,14.0,62,0.00,,OVC050,0.00,VWS V14.01,2013-04-19 18:11:00,
2013-04-19 13:12:00,40.4,28.0,29.82,West,277,4.0,14.0,61,0.00,,OVC050,0.00,VWS V14.01,2013-04-19 18:12:00,
2013-04-19 13:14:00,40.5,27.7,29.82,SSW,201,3.0,16.0,60,0.00,,OVC050,0.00,VWS V14.01,2013-04-19 18:14:00,
2013-04-19 13:15:00,40.5,27.7,29.82,West,281,9.0,16.0,60,0.00,,OVC050,0.00,VWS V14.01,2013-04-19 18:15:00,
2013-04-19 13:16:00,40.5,27.7,29.82,SW,229,4.0,16.0,60,0.00,,OVC050,0.00,VWS V14.01,2013-04-19 18:16:00,
2013-04-19 13:18:00,40.7,27.5,29.82,WSW,246,2.0,16.0,59,0.00,,OVC050,0.00,VWS V14.01,2013-04-19 18:18:00,
2013-04-19 13:19:00,40.7,27.9,29.82,West,267,2.0,16.0,60,0.00,,OVC050,0.00,VWS V14.01,2013-04-19 18:19:00,
2013-04-19 13:20:00,40.8,27.6,29.82,West,269,5.0,16.0,59,0.00,,OVC050,0.00,VWS V14.01,2013-04-19 18:20:00,
2013-04-19 13:21:00,40.8,27.6,29.82,WSW,244,4.0,16.0,59,0.00,,OVC050,0.00,VWS V14.01,2013-04-19 18:21:00,
2013-04-19 13:23:00,41.0,28.2,29.82,WSW,238,2.0,16.0,60,0.00,,OVC050,0.00,VWS V14.01,2013-04-19 18:23:00,
2013-04-19 13:24:00,41.2,28.0,29.82,WSW,251,1.0,16.0,59,0.00,,OVC050,0.00,VWS V14.01,2013-04-19 18:24:00,
2013-04-19 13:25:00,41.2,28.0,29.82,WSW,242,0.0,16.0,59,0.00,,OVC050,0.00,VWS V14.01,2013-04-19 18:25:00,
2013-04-19 13:26:00,41.4,28.6,29.82,WSW,257,2.0,16.0,60,0.00,,OVC050,0.00,VWS V14.01,2013-04-19 18:26:00,
2013-04-19 13:28:00,41.7,28.9,29.82,WSW,254,1.0,16.0,60,0.00,,OVC050,0.00,VWS V14.01,2013-04-19 18:28:00,
2013-04-19 13:30:00,41.8,28.5,29.82,West,271,5.0,16.0,59,0.00,,OVC050,0.00,VWS V14.01,2013-04-19 18:30:00,
2013-04-19 13:31:00,41.8,28.1,29.82,WSW,245,1.0,7.0,58,0.00,,OVC050,0.00,VWS V14.01,2013-04-19 18:31:00,
2013-04-19 13:33:00,42.0,28.3,29.82,NW,309,6.0,7.0,58,0.00,,OVC050,0.00,VWS V14.01,2013-04-19 18:33:00,
2013-04-19 13:35:00,42.1,28.4,29.82,West,264,2.0,7.0,58,0.00,,OVC050,0.00,VWS V14.01,2013-04-19 18:35:00,
2013-04-19 13:36:00,42.1,28.4,29.82,WSW,239,1.0,12.0,58,0.00,,OVC050,0.00,VWS V14.01,2013-04-19 18:36:00,
2013-04-19 13:37:00,42.1,28.4,29.82,West,264,1.0,12.0,58,0.00,,OVC050,0.00,VWS V14.01,2013-04-19 18:37:00,
2013-04-19 13:38:00,42.1,28.0,29.82,West,273,9.0,12.0,57,0.00,,OVC050,0.00,VWS V14.01,2013-04-19 18:38:00,
2013-04-19 13:40:00,42.1,28.4,29.82,WNW,285,4.0,12.0,58,0.00,,OVC050,0.00,VWS V14.01,2013-04-19 18:40:00,
2013-04-19 13:41:00,42.1,28.4,29.82,WSW,237,3.0,12.0,58,0.00,,OVC050,0.00,VWS V14.01,2013-04-19 18:41:00,
2013-04-19 13:42:00,42.1,28.4,29.82,WSW,238,4.0,12.0,58,0.00,,OVC050,0.00,VWS V14.01,2013-04-19 18:42:00,
2013-04-19 13:43:00,42.1,28.4,29.82,WNW,284,10.0,17.0,58,0.00,,OVC050,0.00,VWS V14.01,2013-04-19 18:43:00,
2013-04-19 13:45:00,42.1,28.0,29.82,West,270,5.0,17.0,57,0.00,,OVC050,0.00,VWS V14.01,2013-04-19 18:45:00,
2013-04-19 13:46:00,42.1,28.0,29.82,SW,232,10.0,17.0,57,0.00,,OVC050,0.00,VWS V14.01,2013-04-19 18:46:00,
2013-04-19 13:47:00,42.1,27.5,29.82,West,259,6.0,17.0,56,0.00,,OVC050,0.00,VWS V14.01,2013-04-19 18:47:00,
2013-04-19 13:49:00,42.0,27.0,29.82,West,277,11.0,17.0,55,0.00,,OVC050,0.00,VWS V14.01,2013-04-19 18:49:00,
2013-04-19 13:51:00,42.0,27.0,29.82,West,278,8.0,17.0,55,0.00,,OVC050,0.00,VWS V14.01,2013-04-19 18:51:00,
2013-04-19 13:52:00,42.1,27.5,29.82,WSW,246,2.0,17.0,56,0.00,,OVC050,0.00,VWS V14.01,2013-04-19 18:52:00,
2013-04-19 13:55:00,42.5,27.5,29.82,West,269,4.0,17.0,55,0.00,,OVC050,0.00,VWS V14.01,2013-04-19 18:55:00,
2013-04-19 13:56:00,42.7,27.7,29.82,WNW,284,10.0,17.0,55,0.00,,OVC050,0.00,VWS V14.01,2013-04-19 18:56:00,
2013-04-19 13:57:00,42.7,27.7,29.82,SSW,205,7.0,17.0,55,0.00,,OVC050,0.00,VWS V14.01,2013-04-19 18:57:00,
2013-04-19 14:00:00,42.8,28.2,29.82,WSW,249,2.0,17.0,56,0.00,,OVC050,0.00,VWS V14.01,2013-04-19 19:00:00,
2013-04-19 14:01:00,43.0,28.4,29.82,West,271,2.0,10.0,56,0.00,,OVC050,0.00,VWS V14.01,2013-04-19 19:01:00,
2013-04-19 14:02:00,43.0,28.4,29.82,West,273,3.0,10.0,56,0.00,,OVC050,0.00,VWS V14.01,2013-04-19 19:02:00,
2013-04-19 14:06:00,43.2,29.0,29.82,NW,311,3.0,10.0,57,0.00,,OVC050,0.00,VWS V14.01,2013-04-19 19:06:00,
2013-04-19 14:07:00,43.2,29.0,29.82,WSW,248,2.0,11.0,57,0.00,,OVC050,0.00,VWS V14.01,2013-04-19 19:07:00,
2013-04-19 14:08:00,43.2,29.0,29.82,West,275,6.0,11.0,57,0.00,,OVC050,0.00,VWS V14.01,2013-04-19 19:08:00,
2013-04-19 14:11:00,43.2,28.1,29.82,NW,304,14.0,16.0,55,0.00,,OVC050,0.00,VWS V14.01,2013-04-19 19:11:00,
2013-04-19 14:12:00,43.2,28.6,29.82,West,279,6.0,16.0,56,0.00,,OVC050,0.00,VWS V14.01,2013-04-19 19:12:00,
2013-04-19 14:13:00,43.1,28.0,29.82,WNW,303,3.0,16.0,55,0.00,,OVC050,0.00,VWS V14.01,2013-04-19 19:13:00,
2013-04-19 14:16:00,43.0,28.0,29.83,North,355,5.0,16.0,55,0.00,,OVC050,0.00,VWS V14.01,2013-04-19 19:16:00,
2013-04-19 14:17:00,43.1,28.0,29.83,West,277,4.0,16.0,55,0.00,,OVC050,0.00,VWS V14.01,2013-04-19 19:17:00,
2013-04-19 14:18:00,43.1,28.5,29.83,West,259,6.0,16.0,56,0.00,,OVC050,0.00,VWS V14.01,2013-04-19 19:18:00,
2013-04-19 14:21:00,43.0,27.5,29.83,WNW,286,4.0,16.0,54,0.00,,OVC050,0.00,VWS V14.01,2013-04-19 19:21:00,
2013-04-19 14:22:00,43.0,28.0,29.83,West,273,12.0,16.0,55,0.00,,OVC050,0.00,VWS V14.01,2013-04-19 19:22:00,
2013-04-19 14:23:00,43.1,28.0,29.83,West,276,3.0,16.0,55,0.00,,OVC050,0.00,VWS V14.01,2013-04-19 19:23:00,
2013-04-19 14:26:00,43.1,27.6,29.83,WNW,294,6.0,18.0,54,0.00,,OVC050,0.00,VWS V14.01,2013-04-19 19:26:00,
2013-04-19 14:27:00,43.1,27.6,29.83,West,270,6.0,18.0,54,0.00,,OVC050,0.00,VWS V14.01,2013-04-19 19:27:00,
2013-04-19 14:28:00,43.1,27.6,29.83,WNW,297,6.0,18.0,54,0.00,,OVC050,0.00,VWS V14.01,2013-04-19 19:28:00,
2013-04-19 14:30:00,43.1,27.6,29.82,SW,226,6.0,18.0,54,0.00,,BKN075,0.00,VWS V14.01,2013-04-19 19:30:00,
2013-04-19 14:31:00,43.1,28.0,29.82,WNW,284,4.0,6.0,55,0.00,,OVC050,0.00,VWS V14.01,2013-04-19 19:31:00,
2013-04-19 14:32:00,43.2,28.1,29.82,WNW,282,3.0,7.0,55,0.00,,OVC050,0.00,VWS V14.01,2013-04-19 19:32:00,
2013-04-19 14:33:00,43.2,27.7,29.82,SW,229,0.0,16.0,54,0.00,,OVC050,0.00,VWS V14.01,2013-04-19 19:33:00,
2013-04-19 14:36:00,43.4,27.9,29.82,WNW,286,5.0,16.0,54,0.00,,OVC050,0.00,VWS V14.01,2013-04-19 19:36:00,
2013-04-19 14:37:00,43.4,28.3,29.82,WNW,284,10.0,16.0,55,0.00,,OVC050,0.00,VWS V14.01,2013-04-19 19:37:00,
2013-04-19 14:38:00,43.4,27.9,29.82,West,269,7.0,16.0,54,0.00,,OVC050,0.00,VWS V14.01,2013-04-19 19:38:00,
2013-04-19 14:39:00,43.4,28.3,29.82,West,279,6.0,16.0,55,0.00,,OVC050,0.00,VWS V14.01,2013-04-19 19:39:00,
2013-04-19 14:42:00,43.2,28.6,29.82,SW,235,0.0,16.0,56,0.00,,OVC050,0.00,VWS V14.01,2013-04-19 19:42:00,
2013-04-19 14:43:00,43.4,28.8,29.82,West,267,0.0,16.0,56,0.00,,OVC050,0.00,VWS V14.01,2013-04-19 19:43:00,
2013-04-19 14:44:00,43.4,28.8,29.82,NNW,336,5.0,16.0,56,0.00,,OVC050,0.00,VWS V14.01,2013-04-19 19:44:00,
2013-04-19 14:47:00,43.7,29.5,29.83,West,281,0.0,16.0,57,0.00,,OVC050,0.00,VWS V14.01,2013-04-19 19:47:00,
2013-04-19 14:48:00,43.8,29.6,29.83,SW,217,1.0,16.0,57,0.00,,OVC050,0.00,VWS V14.01,2013-04-19 19:48:00,
2013-04-19 14:49:00,44.0,29.3,29.83,West,261,4.0,16.0,56,0.00,,OVC050,0.00,VWS V14.01,2013-04-19 19:49:00,
2013-04-19 14:52:00,44.0,28.4,29.83,West,271,3.0,16.0,54,0.00,,OVC050,0.00,VWS V14.01,2013-04-19 19:52:00,
2013-04-19 14:53:00,44.0,28.4,29.83,West,265,3.0,16.0,54,0.00,,OVC050,0.00,VWS V14.01,2013-04-19 19:53:00,
2013-04-19 14:54:00,44.0,28.0,29.83,West,261,10.0,16.0,53,0.00,,OVC050,0.00,VWS V14.01,2013-04-19 19:54:00,
2013-04-19 14:55:00,44.0,28.0,29.83,SW,228,6.0,16.0,53,0.00,,OVC050,0.00,VWS V14.01,2013-04-19 19:55:00,
2013-04-19 14:58:00,44.1,28.5,29.83,West,276,0.0,16.0,54,0.00,,OVC050,0.00,VWS V14.01,2013-04-19 19:58:00,
2013-04-19 14:59:00,44.1,29.0,29.83,West,269,5.0,16.0,55,0.00,,OVC050,0.00,VWS V14.01,2013-04-19 19:59:00,
2013-04-19 15:00:00,44.1,28.5,29.82,West,281,4.0,16.0,54,0.00,,OVC050,0.00,VWS V14.01,2013-04-19 20:00:00,
2013-04-19 15:03:00,44.2,28.2,29.82,West,263,5.0,12.0,53,0.00,,OVC065,0.00,VWS V14.01,2013-04-19 20:03:00,
2013-04-19 15:04:00,44.2,28.2,29.82,WNW,286,7.0,12.0,53,0.00,,OVC065,0.00,VWS V14.01,2013-04-19 20:04:00,
2013-04-19 15:05:00,44.1,28.1,29.82,WNW,288,6.0,15.0,53,0.00,,OVC065,0.00,VWS V14.01,2013-04-19 20:05:00,
2013-04-19 15:08:00,44.2,28.6,29.82,WSW,250,1.0,15.0,54,0.00,,OVC065,0.00,VWS V14.01,2013-04-19 20:08:00,
2013-04-19 15:09:00,44.4,29.3,29.82,WSW,257,3.0,15.0,55,0.00,,OVC065,0.00,VWS V14.01,2013-04-19 20:09:00,
2013-04-19 15:10:00,44.4,28.4,29.82,West,277,5.0,15.0,53,0.00,,OVC065,0.00,VWS V14.01,2013-04-19 20:10:00,
2013-04-19 15:13:00,44.7,29.1,29.82,WSW,238,0.0,15.0,54,0.00,,OVC065,0.00,VWS V14.01,2013-04-19 20:13:00,
2013-04-19 15:14:00,44.7,29.1,29.82,WSW,240,0.0,15.0,54,0.00,,OVC065,0.00,VWS V14.01,2013-04-19 20:14:00,
2013-04-19 15:15:00,44.8,29.2,29.83,SSW,198,1.0,15.0,54,0.00,,OVC065,0.00,VWS V14.01,2013-04-19 20:15:00,
2013-04-19 15:18:00,44.7,27.7,29.83,NNW,338,7.0,15.0,51,0.00,,OVC050,0.00,VWS V14.01,2013-04-19 20:18:00,
2013-04-19 15:19:00,44.5,27.5,29.83,West,277,5.0,15.0,51,0.00,,OVC050,0.00,VWS V14.01,2013-04-19 20:19:00,
2013-04-19 15:20:00,44.5,28.0,29.83,WSW,253,2.0,15.0,52,0.00,,OVC050,0.00,VWS V14.01,2013-04-19 20:20:00,
2013-04-19 15:23:00,44.5,28.5,29.83,West,271,3.0,15.0,53,0.00,,OVC050,0.00,VWS V14.01,2013-04-19 20:23:00,
2013-04-19 15:24:00,44.5,28.5,29.83,WSW,244,2.0,15.0,53,0.00,,OVC050,0.00,VWS V14.01,2013-04-19 20:24:00,
2013-04-19 15:25:00,44.7,28.6,29.83,West,271,4.0,15.0,53,0.00,,OVC050,0.00,VWS V14.01,2013-04-19 20:25:00,
2013-04-19 15:29:00,44.8,28.7,29.83,SW,236,0.0,15.0,53,0.00,,OVC050,0.00,VWS V14.01,2013-04-19 20:29:00,
2013-04-19 15:30:00,44.8,28.7,29.83,WNW,284,5.0,15.0,53,0.00,,OVC050,0.00,VWS V14.01,2013-04-19 20:30:00,
2013-04-19 15:31:00,44.8,28.7,29.83,NNW,339,2.0,3.0,53,0.00,,OVC050,0.00,VWS V14.01,2013-04-19 20:31:00,
2013-04-19 15:34:00,44.8,28.3,29.83,NW,312,0.0,10.0,52,0.00,,OVC050,0.00,VWS V14.01,2013-04-19 20:34:00,
2013-04-19 15:35:00,44.8,28.7,29.83,West,273,1.0,10.0,53,0.00,,OVC050,0.00,VWS V14.01,2013-04-19 20:35:00,
2013-04-19 15:36:00,44.8,28.3,29.83,NW,318,11.0,11.0,52,0.00,,OVC050,0.00,VWS V14.01,2013-04-19 20:36:00,
2013-04-19 15:40:00,44.7,28.2,29.83,West,272,2.0,15.0,52,0.00,,OVC050,0.00,VWS V14.01,2013-04-19 20:40:00,
2013-04-19 15:41:00,44.7,28.2,29.83,West,266,6.0,15.0,52,0.00,,OVC050,0.00,VWS V14.01,2013-04-19 20:41:00,
2013-04-19 15:45:00,44.8,28.7,29.83,West,259,5.0,15.0,53,0.00,,OVC050,0.00,VWS V14.01,2013-04-19 20:45:00,
2013-04-19 15:46:00,45.0,28.0,29.83,WSW,253,0.0,15.0,51,0.00,,BKN065,0.00,VWS V14.01,2013-04-19 20:46:00,
2013-04-19 15:50:00,45.3,28.7,29.83,West,263,7.0,15.0,52,0.00,,BKN065,0.00,VWS V14.01,2013-04-19 20:50:00,
2013-04-19 15:51:00,45.3,27.8,29.83,West,277,7.0,15.0,50,0.00,,BKN065,0.00,VWS V14.01,2013-04-19 20:51:00,
2013-04-19 15:55:00,45.3,28.7,29.83,WSW,257,4.0,15.0,52,0.00,,BKN065,0.00,VWS V14.01,2013-04-19 20:55:00,
2013-04-19 15:56:00,45.3,28.2,29.83,SSW,207,0.0,15.0,51,0.00,,BKN065,0.00,VWS V14.01,2013-04-19 20:56:00,
2013-04-19 16:00:00,45.7,28.1,29.83,North,360,3.0,18.0,50,0.00,,BKN065,0.00,VWS V14.01,2013-04-19 21:00:00,
2013-04-19 16:01:00,45.9,28.3,29.83,WNW,296,9.0,11.0,50,0.00,,OVC080,0.00,VWS V14.01,2013-04-19 21:01:00,
2013-04-19 16:05:00,46.1,29.0,29.83,West,264,6.0,11.0,51,0.00,,OVC080,0.00,VWS V14.01,2013-04-19 21:05:00,
2013-04-19 16:06:00,46.1,28.5,29.83,WNW,282,7.0,12.0,50,0.00,,OVC080,0.00,VWS V14.01,2013-04-19 21:06:00,
2013-04-19 16:10:00,46.1,29.0,29.83,WNW,290,9.0,14.0,51,0.00,,OVC080,0.00,VWS V14.01,2013-04-19 21:10:00,
2013-04-19 16:11:00,46.1,29.0,29.83,WNW,288,5.0,14.0,51,0.00,,OVC080,0.00,VWS V14.01,2013-04-19 21:11:00,
2013-04-19 16:12:00,46.1,29.0,29.83,West,277,5.0,14.0,51,0.00,,OVC080,0.00,VWS V14.01,2013-04-19 21:12:00,
2013-04-19 16:16:00,46.1,28.0,29.83,WNW,288,2.0,14.0,49,0.00,,BKN065,0.00,VWS V14.01,2013-04-19 21:16:00,
2013-04-19 16:17:00,46.1,28.5,29.83,West,265,6.0,14.0,50,0.00,,BKN065,0.00,VWS V14.01,2013-04-19 21:17:00,
2013-04-19 16:21:00,46.0,26.9,29.83,West,278,5.0,18.0,47,0.00,,BKN065,0.00,VWS V14.01,2013-04-19 21:21:00,
2013-04-19 16:22:00,45.9,26.8,29.83,North,355,4.0,18.0,47,0.00,,BKN065,0.00,VWS V14.01,2013-04-19 21:22:00,
2013-04-19 16:26:00,45.9,27.3,29.83,West,272,2.0,18.0,48,0.00,,BKN065,0.00,VWS V14.01,2013-04-19 21:26:00,
2013-04-19 16:27:00,45.9,28.3,29.83,West,281,6.0,18.0,50,0.00,,BKN065,0.00,VWS V14.01,2013-04-19 21:27:00,
2013-04-19 16:30:00,46.0,28.9,29.84,West,277,0.0,18.0,51,0.00,,BKN075,0.00,VWS V14.01,2013-04-19 21:30:00,
2013-04-19 16:31:00,46.0,28.9,29.84,West,277,0.0,0.0,51,0.00,,BKN065,0.00,VWS V14.01,2013-04-19 21:31:00,
2013-04-19 16:32:00,46.0,29.4,29.84,West,275,6.0,9.0,52,0.00,,BKN065,0.00,VWS V14.01,2013-04-19 21:32:00,
2013-04-19 16:33:00,46.0,28.9,29.84,WNW,286,1.0,9.0,51,0.00,,BKN065,0.00,VWS V14.01,2013-04-19 21:33:00,
2013-04-19 16:36:00,46.0,27.9,29.84,WNW,284,2.0,16.0,49,0.00,,BKN065,0.00,VWS V14.01,2013-04-19 21:36:00,
2013-04-19 16:37:00,46.1,28.5,29.84,West,260,1.0,16.0,50,0.00,,BKN065,0.00,VWS V14.01,2013-04-19 21:37:00,
2013-04-19 16:38:00,46.1,28.5,29.84,West,260,1.0,16.0,50,0.00,,BKN065,0.00,VWS V14.01,2013-04-19 21:38:00,
2013-04-19 16:41:00,46.4,29.3,29.84,WNW,301,5.0,16.0,51,0.00,,BKN065,0.00,VWS V14.01,2013-04-19 21:41:00,
2013-04-19 16:42:00,46.4,29.3,29.84,West,278,7.0,16.0,51,0.00,,BKN065,0.00,VWS V14.01,2013-04-19 21:42:00,
2013-04-19 16:43:00,46.4,28.8,29.84,NW,310,9.0,16.0,50,0.00,,BKN065,0.00,VWS V14.01,2013-04-19 21:43:00,
2013-04-19 16:47:00,46.3,28.2,29.85,WSW,251,4.0,16.0,49,0.00,,BKN070,0.00,VWS V14.01,2013-04-19 21:47:00,
2013-04-19 16:48:00,46.3,28.2,29.85,West,278,2.0,16.0,49,0.00,,BKN070,0.00,VWS V14.01,2013-04-19 21:48:00,
2013-04-19 16:52:00,46.1,27.5,29.85,West,263,4.0,16.0,48,0.00,,BKN070,0.00,VWS V14.01,2013-04-19 21:52:00,
2013-04-19 16:53:00,46.1,27.5,29.85,West,262,3.0,16.0,48,0.00,,BKN070,0.00,VWS V14.01,2013-04-19 21:53:00,
2013-04-19 16:57:00,46.0,27.9,29.85,West,279,5.0,16.0,49,0.00,,BKN070,0.00,VWS V14.01,2013-04-19 21:57:00,
2013-04-19 16:58:00,46.0,28.4,29.85,NW,324,4.0,16.0,50,0.00,,BKN070,0.00,VWS V14.01,2013-04-19 21:58:00,
2013-04-19 17:00:00,46.0,28.9,29.85,NW,309,9.0,16.0,51,0.00,,BKN075,0.00,VWS V14.01,2013-04-19 22:00:00,
2013-04-19 17:02:00,45.9,28.3,29.85,West,281,9.0,13.0,50,0.00,,BKN050,0.00,VWS V14.01,2013-04-19 22:02:00,
2013-04-19 17:03:00,45.9,27.3,29.85,WSW,248,5.0,13.0,48,0.00,,BKN050,0.00,VWS V14.01,2013-04-19 22:03:00,
2013-04-19 17:07:00,46.1,27.5,29.85,West,277,0.0,14.0,48,0.00,,BKN050,0.00,VWS V14.01,2013-04-19 22:07:00,
2013-04-19 17:08:00,46.1,27.5,29.85,WNW,294,4.0,14.0,48,0.00,,BKN050,0.00,VWS V14.01,2013-04-19 22:08:00,
2013-04-19 17:12:00,46.3,27.7,29.85,West,275,0.0,14.0,48,0.00,,BKN050,0.00,VWS V14.01,2013-04-19 22:12:00,
2013-04-19 17:13:00,46.3,27.7,29.85,NW,304,4.0,14.0,48,0.00,,BKN050,0.00,VWS V14.01,2013-04-19 22:13:00,
2013-04-19 17:17:00,46.4,27.8,29.85,NW,314,5.0,14.0,48,0.00,,BKN050,0.00,VWS V14.01,2013-04-19 22:17:00,
2013-04-19 17:18:00,46.6,28.5,29.85,WNW,282,9.0,14.0,49,0.00,,BKN050,0.00,VWS V14.01,2013-04-19 22:18:00,
2013-04-19 17:22:00,46.7,27.0,29.85,WNW,285,3.0,14.0,46,0.00,,BKN050,0.00,VWS V14.01,2013-04-19 22:22:00,
2013-04-19 17:23:00,46.9,27.7,29.85,WNW,284,3.0,14.0,47,0.00,,BKN050,0.00,VWS V14.01,2013-04-19 22:23:00,
2013-04-19 17:24:00,46.9,27.7,29.85,West,261,11.0,14.0,47,0.00,,BKN050,0.00,VWS V14.01,2013-04-19 22:24:00,
2013-04-19 17:27:00,47.2,27.0,29.85,WSW,257,6.0,14.0,45,0.00,,BKN050,0.00,VWS V14.01,2013-04-19 22:27:00,
2013-04-19 17:28:00,47.2,26.4,29.85,West,260,5.0,14.0,44,0.00,,BKN050,0.00,VWS V14.01,2013-04-19 22:28:00,
2013-04-19 17:29:00,47.3,27.0,29.85,West,273,7.0,14.0,45,0.00,,BKN050,0.00,VWS V14.01,2013-04-19 22:29:00,
2013-04-19 17:30:00,47.5,26.1,29.87,West,271,5.0,16.0,43,0.00,,BKN075,0.00,VWS V14.01,2013-04-19 22:30:00,
2013-04-19 17:32:00,47.5,26.1,29.87,WSW,242,4.0,17.0,43,0.00,,BKN050,0.00,VWS V14.01,2013-04-19 22:32:00,
2013-04-19 17:33:00,47.5,25.6,29.87,WNW,283,10.0,17.0,42,0.00,,BKN050,0.00,VWS V14.01,2013-04-19 22:33:00,
2013-04-19 17:34:00,47.3,25.4,29.87,West,266,5.0,17.0,42,0.00,,BKN050,0.00,VWS V14.01,2013-04-19 22:34:00,
2013-04-19 17:38:00,47.0,26.2,29.87,West,259,6.0,17.0,44,0.00,,BKN050,0.00,VWS V14.01,2013-04-19 22:38:00,
2013-04-19 17:39:00,46.9,26.1,29.87,West,281,5.0,17.0,44,0.00,,BKN050,0.00,VWS V14.01,2013-04-19 22:39:00,
2013-04-19 17:40:00,46.7,26.0,29.87,NNW,329,9.0,17.0,44,0.00,,BKN050,0.00,VWS V14.01,2013-04-19 22:40:00,
2013-04-19 17:43:00,46.6,26.4,29.87,WNW,302,10.0,17.0,45,0.00,,BKN050,0.00,VWS V14.01,2013-04-19 22:43:00,
2013-04-19 17:44:00,46.4,25.7,29.87,West,259,4.0,17.0,44,0.00,,BKN050,0.00,VWS V14.01,2013-04-19 22:44:00,
2013-04-19 17:45:00,46.3,26.1,29.87,WSW,247,6.0,17.0,45,0.00,,BKN050,0.00,VWS V14.01,2013-04-19 22:45:00,
2013-04-19 17:48:00,46.3,26.1,29.87,WSW,244,2.0,17.0,45,0.00,,BKN085,0.00,VWS V14.01,2013-04-19 22:48:00,
2013-04-19 17:49:00,46.3,26.7,29.87,West,271,11.0,17.0,46,0.00,,BKN085,0.00,VWS V14.01,2013-04-19 22:49:00,
2013-04-19 17:50:00,46.3,26.7,29.87,West,279,8.0,17.0,46,0.00,,BKN085,0.00,VWS V14.01,2013-04-19 22:50:00,
2013-04-19 17:53:00,46.4,26.2,29.87,West,267,3.0,17.0,45,0.00,,BKN085,0.00,VWS V14.01,2013-04-19 22:53:00,
2013-04-19 17:54:00,46.4,26.2,29.87,NW,311,14.0,21.0,45,0.00,,BKN085,0.00,VWS V14.01,2013-04-19 22:54:00,
2013-04-19 17:55:00,46.4,26.2,29.87,WNW,282,8.0,21.0,45,0.00,,BKN085,0.00,VWS V14.01,2013-04-19 22:55:00,
2013-04-19 17:58:00,46.4,25.7,29.87,NW,308,2.0,21.0,44,0.00,,BKN085,0.00,VWS V14.01,2013-04-19 22:58:00,
2013-04-19 17:59:00,46.4,26.2,29.87,WNW,296,2.0,21.0,45,0.00,,BKN085,0.00,VWS V14.01,2013-04-19 22:59:00,
2013-04-19 18:00:00,46.4,26.2,29.88,West,266,2.0,21.0,45,0.00,,BKN075,0.00,VWS V14.01,2013-04-19 23:00:00,
2013-04-19 18:03:00,46.3,26.7,29.88,WNW,288,10.0,13.0,46,0.00,,BKN075,0.00,VWS V14.01,2013-04-19 23:03:00,
2013-04-19 18:04:00,46.3,26.7,29.88,West,266,4.0,13.0,46,0.00,,BKN075,0.00,VWS V14.01,2013-04-19 23:04:00,
2013-04-19 18:06:00,46.3,26.7,29.88,WNW,288,6.0,13.0,46,0.00,,BKN075,0.00,VWS V14.01,2013-04-19 23:06:00,
2013-04-19 18:08:00,46.3,27.2,29.88,WNW,284,9.0,14.0,47,0.00,,BKN075,0.00,VWS V14.01,2013-04-19 23:08:00,
2013-04-19 18:09:00,46.3,26.7,29.88,WNW,282,6.0,14.0,46,0.00,,BKN075,0.00,VWS V14.01,2013-04-19 23:09:00,
2013-04-19 18:11:00,46.3,27.2,29.88,West,273,4.0,14.0,47,0.00,,BKN075,0.00,VWS V14.01,2013-04-19 23:11:00,
2013-04-19 18:13:00,46.3,25.6,29.88,WNW,301,11.0,18.0,44,0.00,,BKN075,0.00,VWS V14.01,2013-04-19 23:13:00,
2013-04-19 18:14:00,46.3,26.1,29.88,West,267,4.0,18.0,45,0.00,,BKN075,0.00,VWS V14.01,2013-04-19 23:14:00,
2013-04-19 18:16:00,46.1,27.5,29.90,West,277,12.0,19.0,48,0.00,,BKN075,0.00,VWS V14.01,2013-04-19 23:16:00,
2013-04-19 18:18:00,45.6,28.0,29.90,West,276,4.0,19.0,50,0.00,,BKN075,0.00,VWS V14.01,2013-04-19 23:18:00,
2013-04-19 18:19:00,45.6,28.0,29.90,West,261,7.0,22.0,50,0.00,,BKN075,0.00,VWS V14.01,2013-04-19 23:19:00,
2013-04-19 18:20:00,45.6,27.1,29.90,WNW,290,10.0,22.0,48,0.00,,BKN075,0.00,VWS V14.01,2013-04-19 23:20:00,
2013-04-19 18:21:00,45.7,26.6,29.90,WNW,288,5.0,22.0,47,0.00,,BKN075,0.00,VWS V14.01,2013-04-19 23:21:00,
2013-04-19 18:23:00,46.0,26.9,29.90,West,267,6.0,22.0,47,0.00,,BKN075,0.00,VWS V14.01,2013-04-19 23:23:00,
2013-04-19 18:24:00,46.1,26.5,29.90,West,271,5.0,22.0,46,0.00,,BKN075,0.00,VWS V14.01,2013-04-19 23:24:00,
2013-04-19 18:25:00,46.1,26.5,29.90,West,261,5.0,22.0,46,0.00,,BKN075,0.00,VWS V14.01,2013-04-19 23:25:00,
2013-04-19 18:26:00,46.3,26.7,29.90,West,267,4.0,22.0,46,0.00,,BKN075,0.00,VWS V14.01,2013-04-19 23:26:00,
2013-04-19 18:28:00,46.4,26.8,29.90,West,269,5.0,22.0,46,0.00,,BKN075,0.00,VWS V14.01,2013-04-19 23:28:00,
2013-04-19 18:29:00,46.4,27.3,29.90,NNW,327,7.0,22.0,47,0.00,,BKN075,0.00,VWS V14.01,2013-04-19 23:29:00,
2013-04-19 18:30:00,46.3,27.2,29.89,NW,312,3.0,22.0,47,0.00,,BKN075,0.00,VWS V14.01,2013-04-19 23:30:00,
2013-04-19 18:31:00,46.3,26.7,29.89,WNW,283,0.0,5.0,46,0.00,,BKN075,0.00,VWS V14.01,2013-04-19 23:31:00,
2013-04-19 18:33:00,46.1,26.5,29.89,WNW,300,5.0,11.0,46,0.00,,BKN075,0.00,VWS V14.01,2013-04-19 23:33:00,
2013-04-19 18:34:00,46.1,27.0,29.89,WSW,240,1.0,11.0,47,0.00,,BKN075,0.00,VWS V14.01,2013-04-19 23:34:00,
2013-04-19 18:35:00,46.1,27.0,29.89,West,266,1.0,11.0,47,0.00,,BKN075,0.00,VWS V14.01,2013-04-19 23:35:00,
2013-04-19 18:36:00,46.1,26.5,29.89,West,261,6.0,13.0,46,0.00,,BKN075,0.00,VWS V14.01,2013-04-19 23:36:00,
2013-04-19 18:39:00,46.0,25.9,29.89,NW,306,4.0,14.0,45,0.00,,BKN075,0.00,VWS V14.01,2013-04-19 23:39:00,
2013-04-19 18:40:00,46.0,25.9,29.89,WNW,284,1.0,14.0,45,0.00,,BKN075,0.00,VWS V14.01,2013-04-19 23:40:00,
2013-04-19 18:42:00,46.0,25.9,29.89,WNW,292,5.0,14.0,45,0.00,,BKN075,0.00,VWS V14.01,2013-04-19 23:42:00,
2013-04-19 18:44:00,46.0,25.9,29.89,West,264,4.0,14.0,45,0.00,,BKN075,0.00,VWS V14.01,2013-04-19 23:44:00,
2013-04-19 18:45:00,46.0,25.9,29.90,SW,234,9.0,14.0,45,0.00,,BKN075,0.00,VWS V14.01,2013-04-19 23:45:00,
2013-04-19 18:47:00,45.9,26.3,29.90,West,266,9.0,14.0,46,0.00,,SCT075,0.00,VWS V14.01,2013-04-19 23:47:00,
2013-04-19 18:49:00,45.6,28.5,29.90,West,271,9.0,14.0,51,0.00,,SCT075,0.00,VWS V14.01,2013-04-19 23:49:00,
2013-04-19 18:50:00,45.1,28.1,29.90,WNW,295,18.0,20.0,51,0.00,,SCT075,0.00,VWS V14.01,2013-04-19 23:50:00,
2013-04-19 18:52:00,44.8,28.3,29.90,WNW,287,10.0,20.0,52,0.00,,SCT075,0.00,VWS V14.01,2013-04-19 23:52:00,
2013-04-19 18:54:00,44.8,27.8,29.90,West,265,3.0,20.0,51,0.00,,SCT075,0.00,VWS V14.01,2013-04-19 23:54:00,
2013-04-19 18:55:00,44.8,28.3,29.90,WNW,300,5.0,20.0,52,0.00,,SCT075,0.00,VWS V14.01,2013-04-19 23:55:00,
2013-04-19 18:56:00,44.8,27.8,29.90,West,277,4.0,20.0,51,0.00,,SCT075,0.00,VWS V14.01,2013-04-19 23:56:00,
2013-04-19 18:57:00,44.8,28.3,29.90,WSW,255,6.0,20.0,52,0.00,,SCT075,0.00,VWS V14.01,2013-04-19 23:57:00,
2013-04-19 18:59:00,44.8,28.3,29.90,West,281,3.0,20.0,52,0.00,,SCT075,0.00,VWS V14.01,2013-04-19 23:59:00,
2013-04-19 19:00:00,44.8,28.3,29.90,WNW,300,4.0,20.0,52,0.00,,BKN070,0.00,VWS V14.01,2013-04-20 00:00:00,
2013-04-19 19:01:00,44.8,27.8,29.90,WNW,290,2.0,3.0,51,0.00,,BKN070,0.00,VWS V14.01,2013-04-20 00:01:00,
2013-04-19 19:02:00,44.8,27.3,29.90,West,272,1.0,12.0,50,0.00,,BKN070,0.00,VWS V14.01,2013-04-20 00:02:00,
2013-04-19 19:04:00,44.8,27.8,29.90,NW,307,5.0,12.0,51,0.00,,BKN070,0.00,VWS V14.01,2013-04-20 00:04:00,
2013-04-19 19:05:00,45.0,28.0,29.90,West,263,5.0,12.0,51,0.00,,BKN070,0.00,VWS V14.01,2013-04-20 00:05:00,
2013-04-19 19:06:00,45.0,27.5,29.90,WSW,254,4.0,12.0,50,0.00,,BKN070,0.00,VWS V14.01,2013-04-20 00:06:00,
2013-04-19 19:08:00,45.0,27.5,29.90,West,268,2.0,12.0,50,0.00,,BKN070,0.00,VWS V14.01,2013-04-20 00:08:00,
2013-04-19 19:09:00,45.0,27.5,29.90,WSW,252,2.0,12.0,50,0.00,,BKN070,0.00,VWS V14.01,2013-04-20 00:09:00,
2013-04-19 19:11:00,45.0,28.0,29.90,West,281,4.0,12.0,51,0.00,,BKN070,0.00,VWS V14.01,2013-04-20 00:11:00,
2013-04-19 19:13:00,45.0,28.0,29.90,West,279,6.0,13.0,51,0.00,,BKN070,0.00,VWS V14.01,2013-04-20 00:13:00,
2013-04-19 19:14:00,45.0,28.0,29.90,West,260,9.0,13.0,51,0.00,,BKN070,0.00,VWS V14.01,2013-04-20 00:14:00,
2013-04-19 19:16:00,44.8,27.8,29.92,WNW,282,15.0,18.0,51,0.00,,BKN050,0.00,VWS V14.01,2013-04-20 00:16:00,
2013-04-19 19:18:00,44.7,27.7,29.92,West,275,12.0,18.0,51,0.00,,BKN050,0.00,VWS V14.01,2013-04-20 00:18:00,
2013-04-19 19:20:00,44.7,28.2,29.92,NNW,333,4.0,18.0,52,0.00,,BKN050,0.00,VWS V14.01,2013-04-20 00:20:00,
2013-04-19 19:21:00,44.7,28.2,29.92,WSW,257,5.0,18.0,52,0.00,,BKN050,0.00,VWS V14.01,2013-04-20 00:21:00,
2013-04-19 19:22:00,44.7,28.2,29.92,WNW,284,4.0,18.0,52,0.00,,BKN050,0.00,VWS V14.01,2013-04-20 00:22:00,
2013-04-19 19:23:00,44.5,28.0,29.92,NW,313,10.0,18.0,52,0.00,,BKN050,0.00,VWS V14.01,2013-04-20 00:23:00,
2013-04-19 19:25:00,44.5,28.5,29.92,West,261,3.0,18.0,53,0.00,,BKN050,0.00,VWS V14.01,2013-04-20 00:25:00,
2013-04-19 19:26:00,44.5,28.0,29.92,WNW,293,2.0,18.0,52,0.00,,BKN050,0.00,VWS V14.01,2013-04-20 00:26:00,
2013-04-19 19:27:00,44.5,28.0,29.92,West,269,3.0,18.0,52,0.00,,BKN050,0.00,VWS V14.01,2013-04-20 00:27:00,
2013-04-19 19:28:00,44.4,28.4,29.92,West,277,4.0,18.0,53,0.00,,BKN050,0.00,VWS V14.01,2013-04-20 00:28:00,
2013-04-19 19:30:00,44.4,27.9,29.92,West,281,2.0,18.0,52,0.00,,BKN050,0.00,VWS V14.01,2013-04-20 00:30:00,
2013-04-19 19:31:00,44.4,28.4,29.92,WNW,286,0.0,4.0,53,0.00,,BKN050,0.00,VWS V14.01,2013-04-20 00:31:00,
2013-04-19 19:32:00,44.4,28.4,29.92,WNW,282,4.0,4.0,53,0.00,,BKN050,0.00,VWS V14.01,2013-04-20 00:32:00,
2013-04-19 19:34:00,44.2,28.2,29.92,WNW,282,6.0,9.0,53,0.00,,BKN050,0.00,VWS V14.01,2013-04-20 00:34:00,
2013-04-19 19:35:00,44.2,28.2,29.92,West,267,1.0,9.0,53,0.00,,BKN050,0.00,VWS V14.01,2013-04-20 00:35:00,
2013-04-19 19:36:00,44.2,28.6,29.92,West,273,7.0,9.0,54,0.00,,BKN050,0.00,VWS V14.01,2013-04-20 00:36:00,
2013-04-19 19:37:00,44.2,28.6,29.92,WNW,297,3.0,9.0,54,0.00,,BKN050,0.00,VWS V14.01,2013-04-20 00:37:00,
2013-04-19 19:39:00,44.1,28.5,29.92,WNW,287,1.0,9.0,54,0.00,,BKN050,0.00,VWS V14.01,2013-04-20 00:39:00,
2013-04-19 19:41:00,44.1,28.5,29.92,WNW,283,5.0,9.0,54,0.00,,BKN050,0.00,VWS V14.01,2013-04-20 00:41:00,
2013-04-19 19:42:00,44.1,28.5,29.92,NW,325,2.0,9.0,54,0.00,,BKN050,0.00,VWS V14.01,2013-04-20 00:42:00,
2013-04-19 19:44:00,44.1,28.1,29.92,West,268,0.0,9.0,53,0.00,,BKN050,0.00,VWS V14.01,2013-04-20 00:44:00,
2013-04-19 19:46:00,44.1,28.5,29.93,NW,309,1.0,9.0,54,0.00,,BKN070,0.00,VWS V14.01,2013-04-20 00:46:00,
2013-04-19 19:47:00,44.1,28.5,29.93,WNW,282,2.0,9.0,54,0.00,,BKN070,0.00,VWS V14.01,2013-04-20 00:47:00,
2013-04-19 19:49:00,44.0,28.4,29.93,WNW,298,0.0,9.0,54,0.00,,BKN070,0.00,VWS V14.01,2013-04-20 00:49:00,
2013-04-19 19:51:00,44.0,28.4,29.93,West,274,0.0,9.0,54,0.00,,BKN070,0.00,VWS V14.01,2013-04-20 00:51:00,
2013-04-19 19:52:00,44.0,28.4,29.93,West,279,0.0,9.0,54,0.00,,BKN070,0.00,VWS V14.01,2013-04-20 00:52:00,
2013-04-19 19:54:00,43.8,28.2,29.93,West,281,0.0,9.0,54,0.00,,BKN070,0.00,VWS V14.01,2013-04-20 00:54:00,
2013-04-19 19:56:00,43.8,28.2,29.93,West,277,0.0,9.0,54,0.00,,BKN070,0.00,VWS V14.01,2013-04-20 00:56:00,
2013-04-19 19:57:00,43.8,28.2,29.93,WNW,298,0.0,9.0,54,0.00,,BKN070,0.00,VWS V14.01,2013-04-20 00:57:00,
2013-04-19 19:59:00,43.8,28.2,29.93,SW,224,0.0,9.0,54,0.00,,BKN070,0.00,VWS V14.01,2013-04-20 00:59:00,
2013-04-19 20:00:00,43.8,28.2,29.94,West,273,0.0,9.0,54,0.00,,,0.00,VWS V14.01,2013-04-20 01:00:00,
2013-04-19 20:01:00,43.8,28.2,29.94,West,273,0.0,0.0,54,0.00,,SCT080,0.00,VWS V14.01,2013-04-20 01:01:00,
2013-04-19 20:02:00,43.8,28.2,29.94,West,273,0.0,0.0,54,0.00,,SCT080,0.00,VWS V14.01,2013-04-20 01:02:00,
2013-04-19 20:04:00,43.8,28.2,29.94,West,265,0.0,3.0,54,0.00,,SCT080,0.00,VWS V14.01,2013-04-20 01:04:00,
2013-04-19 20:06:00,43.8,28.2,29.94,West,267,0.0,5.0,54,0.00,,SCT080,0.00,VWS V14.01,2013-04-20 01:06:00,
2013-04-19 20:07:00,43.8,27.8,29.94,West,273,0.0,5.0,53,0.00,,SCT080,0.00,VWS V14.01,2013-04-20 01:07:00,
2013-04-19 20:09:00,43.8,27.8,29.94,WNW,296,0.0,5.0,53,0.00,,SCT080,0.00,VWS V14.01,2013-04-20 01:09:00,
2013-04-19 20:11:00,43.8,27.8,29.94,West,261,0.0,6.0,53,0.00,,SCT080,0.00,VWS V14.01,2013-04-20 01:11:00,
2013-04-19 20:12:00,43.8,27.8,29.94,WNW,290,0.0,6.0,53,0.00,,SCT080,0.00,VWS V14.01,2013-04-20 01:12:00,
2013-04-19 20:13:00,43.8,27.8,29.94,West,266,4.0,10.0,53,0.00,,SCT080,0.00,VWS V14.01,2013-04-20 01:13:00,
2013-04-19 20:15:00,43.8,27.3,29.95,West,280,0.0,10.0,52,0.00,,SCT080,0.00,VWS V14.01,2013-04-20 01:15:00,
2013-04-19 20:16:00,43.8,27.8,29.95,WNW,284,0.0,10.0,53,0.00,,SCT080,0.00,VWS V14.01,2013-04-20 01:16:00,
2013-04-19 20:17:00,43.8,27.8,29.95,West,278,4.0,10.0,53,0.00,,SCT080,0.00,VWS V14.01,2013-04-20 01:17:00,
2013-04-19 20:18:00,43.8,27.8,29.95,WNW,282,0.0,10.0,53,0.00,,SCT080,0.00,VWS V14.01,2013-04-20 01:18:00,
2013-04-19 20:20:00,43.8,27.8,29.95,NNW,336,2.0,10.0,53,0.00,,SCT080,0.00,VWS V14.01,2013-04-20 01:20:00,
2013-04-19 20:22:00,43.8,27.8,29.95,West,273,5.0,10.0,53,0.00,,SCT080,0.00,VWS V14.01,2013-04-20 01:22:00,
2013-04-19 20:23:00,43.8,27.3,29.95,North,11,4.0,10.0,52,0.00,,SCT080,0.00,VWS V14.01,2013-04-20 01:23:00,
2013-04-19 20:25:00,43.8,26.9,29.95,West,277,0.0,10.0,51,0.00,,SCT080,0.00,VWS V14.01,2013-04-20 01:25:00,
2013-04-19 20:27:00,44.0,27.0,29.95,WNW,282,3.0,10.0,51,0.00,,SCT080,0.00,VWS V14.01,2013-04-20 01:27:00,
2013-04-19 20:28:00,43.8,27.3,29.95,NW,313,4.0,10.0,52,0.00,,SCT080,0.00,VWS V14.01,2013-04-20 01:28:00,
2013-04-19 20:30:00,43.8,27.3,29.95,NW,313,1.0,10.0,52,0.00,,SCT080,0.00,VWS V14.01,2013-04-20 01:30:00,
2013-04-19 20:32:00,43.8,27.8,29.95,WSW,257,0.0,0.0,53,0.00,,SCT080,0.00,VWS V14.01,2013-04-20 01:32:00,
2013-04-19 20:33:00,43.7,27.7,29.95,WSW,257,0.0,0.0,53,0.00,,SCT080,0.00,VWS V14.01,2013-04-20 01:33:00,
2013-04-19 20:36:00,43.7,27.7,29.95,West,270,0.0,5.0,53,0.00,,SCT080,0.00,VWS V14.01,2013-04-20 01:36:00,
2013-04-19 20:37:00,43.7,27.7,29.95,West,270,0.0,5.0,53,0.00,,SCT080,0.00,VWS V14.01,2013-04-20 01:37:00,
2013-04-19 20:38:00,43.7,28.2,29.95,West,271,0.0,5.0,54,0.00,,SCT080,0.00,VWS V14.01,2013-04-20 01:38:00,
2013-04-19 20:41:00,43.7,27.7,29.95,West,271,0.0,5.0,53,0.00,,SCT080,0.00,VWS V14.01,2013-04-20 01:41:00,
2013-04-19 20:42:00,43.7,27.7,29.95,West,275,0.0,5.0,53,0.00,,SCT080,0.00,VWS V14.01,2013-04-20 01:42:00,
2013-04-19 20:43:00,43.7,27.7,29.95,SW,234,0.0,5.0,53,0.00,,SCT080,0.00,VWS V14.01,2013-04-20 01:43:00,
2013-04-19 20:46:00,43.4,27.9,29.96,SW,234,0.0,5.0,54,0.00,,SCT085,0.00,VWS V14.01,2013-04-20 01:46:00,
2013-04-19 20:47:00,43.4,27.9,29.96,WSW,237,0.0,5.0,54,0.00,,SCT085,0.00,VWS V14.01,2013-04-20 01:47:00,
2013-04-19 20:48:00,43.4,27.9,29.96,WNW,282,4.0,5.0,54,0.00,,SCT085,0.00,VWS V14.01,2013-04-20 01:48:00,
2013-04-19 20:51:00,43.2,27.7,29.96,West,269,0.0,5.0,54,0.00,,SCT085,0.00,VWS V14.01,2013-04-20 01:51:00,
2013-04-19 20:52:00,43.2,27.7,29.96,WSW,257,0.0,5.0,54,0.00,,SCT085,0.00,VWS V14.01,2013-04-20 01:52:00,
2013-04-19 20:53:00,43.1,27.6,29.96,WSW,257,0.0,5.0,54,0.00,,SCT085,0.00,VWS V14.01,2013-04-20 01:53:00,
2013-04-19 20:54:00,43.1,27.6,29.96,WSW,257,0.0,5.0,54,0.00,,SCT085,0.00,VWS V14.01,2013-04-20 01:54:00,
2013-04-19 20:56:00,43.1,27.6,29.96,WSW,257,0.0,5.0,54,0.00,,SCT085,0.00,VWS V14.01,2013-04-20 01:56:00,
2013-04-19 20:57:00,43.0,28.0,29.96,West,260,0.0,5.0,55,0.00,,SCT085,0.00,VWS V14.01,2013-04-20 01:57:00,
2013-04-19 20:58:00,43.0,28.0,29.96,West,260,0.0,5.0,55,0.00,,SCT085,0.00,VWS V14.01,2013-04-20 01:58:00,
2013-04-19 20:59:00,43.0,28.0,29.96,West,260,0.0,5.0,55,0.00,,SCT085,0.00,VWS V14.01,2013-04-20 01:59:00,
2013-04-19 21:00:00,42.8,28.2,29.97,West,260,0.0,5.0,56,0.00,,,0.00,VWS V14.01,2013-04-20 02:00:00,
2013-04-19 21:01:00,42.8,28.2,29.97,West,260,0.0,0.0,56,0.00,,CLR,0.00,VWS V14.01,2013-04-20 02:01:00,
2013-04-19 21:03:00,42.8,28.2,29.97,West,260,0.0,0.0,56,0.00,,CLR,0.00,VWS V14.01,2013-04-20 02:03:00,
2013-04-19 21:04:00,42.7,28.1,29.97,West,260,0.0,0.0,56,0.00,,CLR,0.00,VWS V14.01,2013-04-20 02:04:00,
2013-04-19 21:06:00,42.7,28.1,29.97,West,260,0.0,0.0,56,0.00,,CLR,0.00,VWS V14.01,2013-04-20 02:06:00,
2013-04-19 21:08:00,42.7,28.1,29.97,West,260,0.0,0.0,56,0.00,,CLR,0.00,VWS V14.01,2013-04-20 02:08:00,
2013-04-19 21:09:00,42.5,27.9,29.97,West,260,0.0,0.0,56,0.00,,CLR,0.00,VWS V14.01,2013-04-20 02:09:00,
2013-04-19 21:11:00,42.5,28.4,29.97,West,260,0.0,0.0,57,0.00,,CLR,0.00,VWS V14.01,2013-04-20 02:11:00,
2013-04-19 21:13:00,42.4,28.3,29.97,West,260,0.0,0.0,57,0.00,,CLR,0.00,VWS V14.01,2013-04-20 02:13:00,
2013-04-19 21:14:00,42.4,28.3,29.97,West,260,0.0,0.0,57,0.00,,CLR,0.00,VWS V14.01,2013-04-20 02:14:00,
2013-04-19 21:16:00,42.4,28.7,29.97,West,260,0.0,0.0,58,0.00,,BKN050,0.00,VWS V14.01,2013-04-20 02:16:00,
2013-04-19 21:18:00,42.2,28.5,29.97,West,260,0.0,0.0,58,0.00,,BKN050,0.00,VWS V14.01,2013-04-20 02:18:00,
2013-04-19 21:19:00,42.2,28.5,29.97,West,260,0.0,0.0,58,0.00,,BKN050,0.00,VWS V14.01,2013-04-20 02:19:00,
2013-04-19 21:21:00,42.1,28.8,29.97,West,260,0.0,0.0,59,0.00,,BKN050,0.00,VWS V14.01,2013-04-20 02:21:00,
2013-04-19 21:23:00,42.1,28.8,29.97,West,260,0.0,0.0,59,0.00,,BKN050,0.00,VWS V14.01,2013-04-20 02:23:00,
2013-04-19 21:24:00,42.0,28.7,29.97,West,260,0.0,0.0,59,0.00,,BKN050,0.00,VWS V14.01,2013-04-20 02:24:00,
2013-04-19 21:26:00,41.8,29.0,29.97,West,260,0.0,0.0,60,0.00,,BKN050,0.00,VWS V14.01,2013-04-20 02:26:00,
2013-04-19 21:28:00,41.7,28.9,29.97,West,260,0.0,0.0,60,0.00,,BKN050,0.00,VWS V14.01,2013-04-20 02:28:00,
2013-04-19 21:29:00,41.7,28.9,29.97,West,260,0.0,0.0,60,0.00,,BKN050,0.00,VWS V14.01,2013-04-20 02:29:00,
2013-04-19 21:30:00,41.5,28.7,29.98,West,260,0.0,0.0,60,0.00,,,0.00,VWS V14.01,2013-04-20 02:30:00,
2013-04-19 21:32:00,41.5,28.7,29.98,West,260,0.0,0.0,60,0.00,,CLR,0.00,VWS V14.01,2013-04-20 02:32:00,
2013-04-19 21:33:00,41.4,28.6,29.98,West,260,0.0,0.0,60,0.00,,CLR,0.00,VWS V14.01,2013-04-20 02:33:00,
2013-04-19 21:34:00,41.4,28.6,29.98,West,260,0.0,0.0,60,0.00,,CLR,0.00,VWS V14.01,2013-04-20 02:34:00,
2013-04-19 21:37:00,41.2,28.8,29.98,West,260,0.0,0.0,61,0.00,,CLR,0.00,VWS V14.01,2013-04-20 02:37:00,
2013-04-19 21:38:00,41.1,28.7,29.98,West,260,0.0,0.0,61,0.00,,CLR,0.00,VWS V14.01,2013-04-20 02:38:00,
2013-04-19 21:39:00,41.1,28.7,29.98,West,260,0.0,0.0,61,0.00,,CLR,0.00,VWS V14.01,2013-04-20 02:39:00,
2013-04-19 21:40:00,41.1,28.7,29.98,West,260,0.0,0.0,61,0.00,,CLR,0.00,VWS V14.01,2013-04-20 02:40:00,
2013-04-19 21:42:00,41.0,29.0,29.98,West,260,0.0,0.0,62,0.00,,CLR,0.00,VWS V14.01,2013-04-20 02:42:00,
2013-04-19 21:43:00,40.8,28.8,29.98,West,260,0.0,0.0,62,0.00,,CLR,0.00,VWS V14.01,2013-04-20 02:43:00,
2013-04-19 21:44:00,40.8,28.8,29.98,West,260,0.0,0.0,62,0.00,,CLR,0.00,VWS V14.01,2013-04-20 02:44:00,
2013-04-19 21:45:00,40.8,28.8,29.98,West,260,0.0,0.0,62,0.00,,CLR,0.00,VWS V14.01,2013-04-20 02:45:00,
2013-04-19 21:47:00,40.7,28.7,29.98,West,260,0.0,0.0,62,0.00,,CLR,0.00,VWS V14.01,2013-04-20 02:47:00,
2013-04-19 21:48:00,40.5,28.5,29.98,West,260,0.0,0.0,62,0.00,,CLR,0.00,VWS V14.01,2013-04-20 02:48:00,
2013-04-19 21:49:00,40.5,28.5,29.98,West,260,0.0,0.0,62,0.00,,CLR,0.00,VWS V14.01,2013-04-20 02:49:00,
2013-04-19 21:50:00,40.5,28.5,29.98,West,260,0.0,0.0,62,0.00,,CLR,0.00,VWS V14.01,2013-04-20 02:50:00,
2013-04-19 21:53:00,40.4,28.4,29.98,West,260,0.0,0.0,62,0.00,,CLR,0.00,VWS V14.01,2013-04-20 02:53:00,
2013-04-19 21:54:00,40.4,28.4,29.98,West,260,0.0,0.0,62,0.00,,CLR,0.00,VWS V14.01,2013-04-20 02:54:00,
2013-04-19 21:55:00,40.2,28.2,29.98,West,260,0.0,0.0,62,0.00,,CLR,0.00,VWS V14.01,2013-04-20 02:55:00,
2013-04-19 21:58:00,40.1,28.5,29.98,West,260,0.0,0.0,63,0.00,,CLR,0.00,VWS V14.01,2013-04-20 02:58:00,
2013-04-19 21:59:00,40.1,28.5,29.98,West,260,0.0,0.0,63,0.00,,CLR,0.00,VWS V14.01,2013-04-20 02:59:00,
2013-04-19 22:00:00,40.0,28.4,29.99,West,260,0.0,0.0,63,0.00,,CLR,0.00,VWS V14.01,2013-04-20 03:00:00,
2013-04-19 22:03:00,40.1,28.5,29.99,West,260,0.0,0.0,63,0.00,,CLR,0.00,VWS V14.01,2013-04-20 03:03:00,
2013-04-19 22:04:00,40.1,28.5,29.99,West,260,0.0,0.0,63,0.00,,CLR,0.00,VWS V14.01,2013-04-20 03:04:00,
2013-04-19 22:05:00,40.1,28.5,29.99,West,260,0.0,0.0,63,0.00,,CLR,0.00,VWS V14.01,2013-04-20 03:05:00,
2013-04-19 22:08:00,40.0,28.4,29.99,West,260,0.0,0.0,63,0.00,,CLR,0.00,VWS V14.01,2013-04-20 03:08:00,
2013-04-19 22:09:00,40.0,28.4,29.99,West,260,0.0,0.0,63,0.00,,CLR,0.00,VWS V14.01,2013-04-20 03:09:00,
2013-04-19 22:10:00,40.0,28.4,29.99,West,260,0.0,0.0,63,0.00,,CLR,0.00,VWS V14.01,2013-04-20 03:10:00,
2013-04-19 22:13:00,39.8,28.6,29.99,West,260,0.0,0.0,64,0.00,,CLR,0.00,VWS V14.01,2013-04-20 03:13:00,
2013-04-19 22:14:00,39.8,28.6,29.99,West,260,0.0,0.0,64,0.00,,CLR,0.00,VWS V14.01,2013-04-20 03:14:00,
2013-04-19 22:15:00,39.8,28.6,29.99,West,260,0.0,0.0,64,0.00,,CLR,0.00,VWS V14.01,2013-04-20 03:15:00,
2013-04-19 22:19:00,39.7,28.5,29.99,West,260,0.0,0.0,64,0.00,,CLR,0.00,VWS V14.01,2013-04-20 03:19:00,
2013-04-19 22:20:00,39.7,28.5,29.99,West,260,0.0,0.0,64,0.00,,CLR,0.00,VWS V14.01,2013-04-20 03:20:00,
2013-04-19 22:24:00,39.7,28.5,29.99,West,260,0.0,0.0,64,0.00,,CLR,0.00,VWS V14.01,2013-04-20 03:24:00,
2013-04-19 22:25:00,39.7,28.5,29.99,West,260,0.0,0.0,64,0.00,,CLR,0.00,VWS V14.01,2013-04-20 03:25:00,
2013-04-19 22:26:00,39.7,28.5,29.99,West,260,0.0,0.0,64,0.00,,CLR,0.00,VWS V14.01,2013-04-20 03:26:00,
2013-04-19 22:29:00,39.5,28.4,29.99,West,259,0.0,0.0,64,0.00,,CLR,0.00,VWS V14.01,2013-04-20 03:29:00,
2013-04-19 22:30:00,39.5,28.4,29.99,West,259,0.0,0.0,64,0.00,,CLR,0.00,VWS V14.01,2013-04-20 03:30:00,
2013-04-19 22:31:00,39.5,28.4,29.99,West,259,0.0,0.0,64,0.00,,CLR,0.00,VWS V14.01,2013-04-20 03:31:00,
2013-04-19 22:34:00,39.4,28.6,29.99,West,259,0.0,0.0,65,0.00,,CLR,0.00,VWS V14.01,2013-04-20 03:34:00,
2013-04-19 22:35:00,39.4,28.6,29.99,West,259,0.0,0.0,65,0.00,,CLR,0.00,VWS V14.01,2013-04-20 03:35:00,
2013-04-19 22:36:00,39.4,28.6,29.99,West,259,0.0,0.0,65,0.00,,CLR,0.00,VWS V14.01,2013-04-20 03:36:00,
2013-04-19 22:39:00,39.2,28.4,29.99,West,259,0.0,0.0,65,0.00,,CLR,0.00,VWS V14.01,2013-04-20 03:39:00,
2013-04-19 22:40:00,39.2,28.4,29.99,West,259,0.0,0.0,65,0.00,,CLR,0.00,VWS V14.01,2013-04-20 03:40:00,
2013-04-19 22:41:00,39.2,28.4,29.99,West,259,0.0,0.0,65,0.00,,CLR,0.00,VWS V14.01,2013-04-20 03:41:00,
2013-04-19 22:44:00,39.1,28.3,29.99,West,259,0.0,0.0,65,0.00,,CLR,0.00,VWS V14.01,2013-04-20 03:44:00,
2013-04-19 22:45:00,39.1,28.3,30.00,SSW,194,0.0,1.0,65,0.00,,CLR,0.00,VWS V14.01,2013-04-20 03:45:00,
2013-04-19 22:46:00,39.1,28.3,30.00,SSW,194,0.0,1.0,65,0.00,,CLR,0.00,VWS V14.01,2013-04-20 03:46:00,
2013-04-19 22:49:00,39.1,28.3,30.00,SSW,194,0.0,1.0,65,0.00,,CLR,0.00,VWS V14.01,2013-04-20 03:49:00,
2013-04-19 22:50:00,39.1,28.3,30.00,SSW,194,0.0,1.0,65,0.00,,CLR,0.00,VWS V14.01,2013-04-20 03:50:00,
2013-04-19 22:51:00,39.0,28.2,30.00,SSW,194,0.0,1.0,65,0.00,,CLR,0.00,VWS V14.01,2013-04-20 03:51:00,
2013-04-19 22:54:00,39.0,28.2,30.00,SSW,194,0.0,1.0,65,0.00,,CLR,0.00,VWS V14.01,2013-04-20 03:54:00,
2013-04-19 22:56:00,39.0,28.2,30.00,SSW,194,0.0,1.0,65,0.00,,CLR,0.00,VWS V14.01,2013-04-20 03:56:00,
2013-04-19 22:59:00,39.1,28.0,30.00,SSW,194,0.0,1.0,64,0.00,,CLR,0.00,VWS V14.01,2013-04-20 03:59:00,
2013-04-19 23:00:00,39.2,28.1,30.00,SSW,194,0.0,1.0,64,0.00,,,0.00,VWS V14.01,2013-04-20 04:00:00,
2013-04-19 23:01:00,39.2,28.1,30.00,SSW,194,0.0,0.0,64,0.00,,CLR,0.00,VWS V14.01,2013-04-20 04:01:00,
2013-04-19 23:06:00,39.4,27.9,30.00,SSW,194,0.0,0.0,63,0.00,,CLR,0.00,VWS V14.01,2013-04-20 04:06:00,
2013-04-19 23:11:00,39.4,27.9,30.00,SSW,194,0.0,0.0,63,0.00,,CLR,0.00,VWS V14.01,2013-04-20 04:11:00,
2013-04-19 23:12:00,39.4,27.9,30.00,SSW,194,0.0,0.0,63,0.00,,CLR,0.00,VWS V14.01,2013-04-20 04:12:00,
2013-04-19 23:16:00,39.4,27.9,30.00,SSW,194,0.0,0.0,63,0.00,,CLR,0.00,VWS V14.01,2013-04-20 04:16:00,
2013-04-19 23:17:00,39.4,27.9,30.00,SSW,194,0.0,0.0,63,0.00,,CLR,0.00,VWS V14.01,2013-04-20 04:17:00,
2013-04-19 23:21:00,39.2,27.7,30.00,SSW,194,0.0,0.0,63,0.00,,CLR,0.00,VWS V14.01,2013-04-20 04:21:00,
2013-04-19 23:22:00,39.2,27.7,30.00,SSW,194,0.0,0.0,63,0.00,,CLR,0.00,VWS V14.01,2013-04-20 04:22:00,
2013-04-19 23:26:00,39.2,27.7,30.00,SSW,194,0.0,0.0,63,0.00,,CLR,0.00,VWS V14.01,2013-04-20 04:26:00,
2013-04-19 23:27:00,39.2,28.1,30.00,SSW,194,0.0,0.0,64,0.00,,CLR,0.00,VWS V14.01,2013-04-20 04:27:00,
2013-04-19 23:30:00,39.2,28.1,30.00,SSW,194,0.0,0.0,64,0.00,,,0.00,VWS V14.01,2013-04-20 04:30:00,
2013-04-19 23:31:00,39.2,28.1,30.00,SSW,194,0.0,0.0,64,0.00,,CLR,0.00,VWS V14.01,2013-04-20 04:31:00,
2013-04-19 23:32:00,39.2,28.1,30.00,SSW,194,0.0,0.0,64,0.00,,CLR,0.00,VWS V14.01,2013-04-20 04:32:00,
2013-04-19 23:36:00,39.1,28.3,30.00,SSW,194,0.0,0.0,65,0.00,,CLR,0.00,VWS V14.01,2013-04-20 04:36:00,
2013-04-19 23:37:00,39.1,28.3,30.00,SSW,194,0.0,0.0,65,0.00,,CLR,0.00,VWS V14.01,2013-04-20 04:37:00,
2013-04-19 23:38:00,39.1,28.3,30.00,SSW,194,0.0,0.0,65,0.00,,CLR,0.00,VWS V14.01,2013-04-20 04:38:00,
2013-04-19 23:41:00,39.1,28.3,30.00,SSW,194,0.0,0.0,65,0.00,,CLR,0.00,VWS V14.01,2013-04-20 04:41:00,
2013-04-19 23:42:00,39.0,28.2,30.00,SSW,194,0.0,0.0,65,0.00,,CLR,0.00,VWS V14.01,2013-04-20 04:42:00,
2013-04-19 23:43:00,39.0,28.2,30.00,SSW,194,0.0,0.0,65,0.00,,CLR,0.00,VWS V14.01,2013-04-20 04:43:00,
2013-04-19 23:46:00,38.8,28.1,30.01,SSW,194,0.0,0.0,65,0.00,,CLR,0.00,VWS V14.01,2013-04-20 04:46:00,
2013-04-19 23:47:00,38.8,28.1,30.01,SSW,194,0.0,0.0,65,0.00,,CLR,0.00,VWS V14.01,2013-04-20 04:47:00,
2013-04-19 23:49:00,38.8,28.1,30.01,SSW,194,0.0,0.0,65,0.00,,CLR,0.00,VWS V14.01,2013-04-20 04:49:00,
2013-04-19 23:51:00,38.7,28.0,30.01,SSW,194,0.0,0.0,65,0.00,,CLR,0.00,VWS V14.01,2013-04-20 04:51:00,
2013-04-19 23:52:00,38.7,28.0,30.01,SSW,194,0.0,0.0,65,0.00,,CLR,0.00,VWS V14.01,2013-04-20 04:52:00,
2013-04-19 23:54:00,38.7,28.0,30.01,SSW,194,0.0,0.0,65,0.00,,CLR,0.00,VWS V14.01,2013-04-20 04:54:00,
2013-04-19 23:56:00,38.7,28.0,30.01,SSW,194,0.0,0.0,65,0.00,,CLR,0.00,VWS V14.01,2013-04-20 04:56:00,
2013-04-19 23:57:00,38.7,28.0,30.01,SSW,194,0.0,0.0,65,0.00,,CLR,0.00,VWS V14.01,2013-04-20 04:57:00,
2013-04-19 23:59:00,38.8,28.1,30.01,SSW,194,0.0,0.0,65,0.00,,CLR,0.00,VWS V14.01,2013-04-20 04:59:00,